GFSFLT2_500_spd_000.txt.gz
Wind_Speed
53 58 58 55 58 44 34 33 33 29 35 31 25 29 27 21 26 27 26 23 12 14 13 15 16 14 16 18 20 19 21 24
50 57 59 64 55 54 47 43 39 33 28 22 25 25 24 23 22 23 24 16 15 16 16 16 10 11 15 16 18 19 19 16
47 56 59 63 64 63 48 46 41 38 35 28 26 31 27 21 26 24 22 18 19 19 23 22 18 12 14 14 16 15 13 9
41 48 55 49 60 57 59 59 47 45 36 26 29 33 30 25 21 28 29 27 24 22 26 27 21 13 13 15 13 12 10 9
37 38 50 55 55 52 56 49 52 47 42 32 27 32 32 24 26 23 21 28 26 25 20 20 20 14 13 12 11 11 10 11
33 34 37 52 64 60 53 63 59 56 40 35 34 45 33 29 25 23 21 21 24 23 25 22 21 19 17 16 14 15 15 17
35 36 30 38 43 57 70 67 60 53 51 48 43 44 36 33 30 27 23 28 23 28 23 24 22 21 19 19 20 21 22 21
35 33 34 36 40 44 47 72 69 60 56 41 44 52 47 32 30 29 27 29 26 28 31 27 27 25 27 25 24 25 22 20
31 24 30 37 39 39 48 49 56 64 68 67 54 47 42 37 32 26 27 31 26 29 34 33 29 28 30 28 24 23 23 23
36 36 33 32 31 35 39 47 52 56 47 50 53 52 44 38 33 29 31 29 32 36 31 29 32 35 34 29 26 30 29 32
45 37 32 28 25 30 35 40 41 47 49 48 52 53 47 35 36 32 34 30 36 32 30 32 35 36 36 33 31 35 35 37
40 42 38 36 30 35 36 48 49 42 53 49 52 49 38 42 37 36 32 32 35 35 34 35 37 38 37 36 34 34 36 39
47 48 46 47 38 37 30 39 38 49 46 47 48 44 42 44 37 39 37 33 32 30 39 38 39 41 45 39 40 39 39 43
52 53 43 41 34 35 29 32 36 39 45 39 40 38 46 40 37 40 39 39 38 35 33 44 47 48 45 45 41 42 44 45
47 48 51 47 37 34 28 31 32 29 34 38 37 38 42 37 37 39 40 39 38 39 39 43 48 46 43 46 44 42 41 46
39 39 38 37 42 47 36 34 33 34 33 36 37 38 38 37 38 38 41 42 39 39 41 43 47 52 39 45 43 42 41 45
36 33 33 29 34 37 40 34 36 36 38 39 40 40 47 50 47 44 45 44 42 42 43 46 50 47 41 44 47 47 49 50
32 29 29 37 40 40 43 37 38 43 47 44 42 45 47 56 52 43 47 44 42 41 45 45 46 45 46 49 51 51 50 47
28 28 28 18 40 42 46 48 46 47 45 47 43 43 44 39 39 42 45 46 35 34 39 46 46 46 48 43 39 38 40 41

GFSFLT2_500_spd_003.txt.gz
Wind_Speed
30 35 46 47 55 43 35 30 32 30 31 31 25 32 33 32 26 26 36 24 23 16 15 11 13 15 15 17 18 20 22 22
32 35 41 51 43 48 48 44 38 33 31 27 31 33 30 30 26 26 27 25 26 22 18 12 12 10 10 12 18 19 22 20
31 38 38 47 57 47 45 45 43 38 33 31 26 22 26 26 20 24 26 22 21 16 14 16 18 15 13 16 17 18 19 19
36 33 35 39 44 54 47 51 47 42 36 27 30 26 27 29 25 19 25 27 22 22 21 18 19 18 21 18 16 18 19 21
38 32 36 42 42 47 54 44 50 48 45 33 25 28 28 29 31 21 23 25 28 28 30 24 17 17 19 18 16 17 21 19
37 36 30 33 40 44 47 57 53 52 41 35 35 37 34 37 28 30 30 33 31 29 30 28 21 20 20 18 19 17 18 18
40 33 25 32 34 40 48 49 55 48 44 42 40 37 33 31 41 36 31 35 28 30 26 25 23 24 23 20 22 22 19 17
39 31 34 31 32 37 38 47 51 50 49 43 43 37 33 35 41 43 32 30 34 31 31 27 28 26 25 24 25 25 19 18
38 34 31 34 39 37 38 40 42 52 55 46 47 46 46 48 47 45 35 32 34 33 27 30 30 31 32 30 28 27 22 18
36 32 35 39 32 32 36 38 39 42 39 39 49 57 49 40 41 40 38 36 34 31 28 34 32 33 35 35 33 27 27 27
36 37 36 34 28 34 37 38 37 37 39 35 35 36 49 59 55 41 46 30 38 32 32 33 35 33 34 36 34 33 33 35
35 41 41 31 40 28 36 45 41 40 33 37 34 28 35 40 52 52 43 39 41 35 34 37 34 34 35 37 35 33 32 32
50 38 33 41 40 33 37 31 31 39 41 35 39 34 38 43 40 42 40 46 43 38 35 39 38 37 35 36 36 37 39 40
45 42 41 42 40 39 40 38 34 31 29 44 37 47 52 43 41 39 39 49 47 42 39 38 40 40 40 40 42 43 45 46
35 36 45 47 46 36 33 33 28 27 34 40 40 43 38 35 34 36 40 46 49 46 40 37 34 30 36 44 47 47 46 46
39 48 49 48 40 35 34 32 30 33 34 35 34 35 39 39 37 35 43 48 50 48 47 44 42 41 38 39 47 51 52 50
58 60 53 51 39 29 31 33 33 34 36 34 35 41 39 37 39 37 42 47 43 45 46 48 48 48 48 49 48 47 51 50
37 49 47 39 33 30 30 34 39 40 34 38 34 36 40 42 40 39 35 39 41 42 47 49 50 50 49 48 47 46 51 47
51 31 29 32 31 29 27 30 35 40 39 36 33 36 41 40 36 41 42 44 47 48 49 51 52 52 52 48 48 48 50 50

GFSFLT2_500_spd_006.txt.gz
Wind_Speed
29 29 35 35 44 41 38 33 34 30 31 27 32 33 34 22 20 28 23 32 33 22 21 19 16 13 15 18 21 20 22 24
30 31 33 38 30 41 48 46 44 35 34 31 27 34 40 28 30 29 27 38 38 28 23 19 15 11 9 10 11 15 19 21
32 43 36 38 42 44 39 49 48 42 39 27 25 32 36 40 33 31 28 35 39 27 28 21 18 14 12 10 16 18 17 20
41 33 34 38 39 43 52 49 51 47 43 24 24 27 34 39 36 33 33 34 36 24 25 24 18 13 10 11 16 19 18 18
44 40 35 42 40 39 47 50 47 52 53 38 26 31 22 29 20 20 28 36 36 30 28 24 20 17 15 13 18 18 17 13
50 47 35 37 41 40 43 47 57 51 43 42 37 38 32 26 23 37 39 25 29 23 25 26 26 19 20 18 20 19 13 8
46 40 30 35 36 40 43 45 50 52 47 37 49 37 30 40 34 35 39 31 32 30 29 28 31 27 24 24 24 20 15 9
47 39 40 34 35 38 39 43 42 51 45 46 40 49 39 36 34 40 41 45 42 29 32 33 34 30 26 26 26 23 19 12
57 47 35 40 45 35 36 36 38 39 54 45 49 42 48 39 31 31 35 38 49 47 40 37 37 36 31 29 28 27 24 17
53 38 42 53 36 36 36 34 33 35 38 46 51 57 55 56 40 42 36 43 40 49 51 42 40 39 35 33 30 28 28 24
47 41 45 39 32 33 37 42 39 35 37 35 38 56 64 63 55 52 51 39 50 51 48 51 39 36 37 34 28 30 29 25
50 50 50 42 36 47 50 46 45 47 45 43 39 38 43 64 66 60 55 52 50 51 42 45 36 36 32 34 32 33 28 26
57 54 47 38 45 43 46 42 41 43 44 46 49 45 38 37 35 51 70 53 59 40 38 40 34 36 33 34 31 29 30 27
51 43 41 46 41 24 43 45 37 40 42 49 50 46 38 43 44 43 44 65 62 46 49 37 39 38 36 35 32 33 32 33
54 55 40 35 50 47 49 45 39 38 37 37 41 52 58 55 53 53 46 53 68 61 57 48 46 44 39 40 37 35 39 37
45 47 39 54 52 49 45 45 44 44 45 45 42 45 48 51 49 56 44 47 48 46 49 52 49 46 39 39 39 41 41 41
34 46 55 51 54 55 53 41 40 38 35 42 40 43 43 52 57 49 53 52 47 48 46 50 49 45 46 40 38 38 39 44
45 52 55 54 52 48 40 38 34 33 38 40 38 37 34 41 43 42 42 41 38 39 37 43 46 48 48 46 46 50 50 50
53 59 64 57 50 45 37 38 35 31 38 41 36 31 36 46 34 32 35 35 38 37 37 45 49 50 53 53 54 54 57 57

GFSFLT2_500_spd_009.txt.gz
Wind_Speed
31 25 30 30 38 31 43 45 43 44 40 26 25 23 27 31 23 32 26 32 13 10 16 16 19 18 17 17 18 20 20 22
32 31 34 37 30 35 39 46 50 42 45 38 23 24 32 32 28 32 31 28 26 10 18 28 21 20 19 14 11 12 16 18
40 42 39 36 40 43 37 41 43 45 45 31 26 19 29 30 32 36 41 30 30 19 26 24 22 23 23 15 12 12 13 11
46 43 42 39 40 40 47 41 46 45 41 32 28 26 30 32 34 33 36 30 27 22 30 25 23 20 22 14 13 13 14 10
48 49 50 47 41 42 43 44 45 44 37 35 39 36 29 36 34 30 24 28 32 32 35 30 23 18 21 16 15 16 13 9
56 54 50 53 48 42 44 48 44 48 40 32 42 43 36 32 31 30 28 32 37 39 37 35 31 25 24 21 18 16 10 8
60 52 47 52 48 43 46 45 47 40 46 40 40 45 38 31 26 27 29 32 36 39 39 30 26 23 23 23 23 21 15 10
62 58 51 51 49 43 42 40 42 41 42 45 45 41 37 32 37 39 38 38 36 40 44 39 37 37 36 26 22 24 22 13
70 62 52 50 59 51 40 38 36 44 40 39 49 50 49 36 37 40 37 35 43 43 47 45 45 40 41 33 27 24 25 20
69 63 57 59 54 50 45 41 40 40 37 36 40 52 58 46 41 52 46 47 42 42 44 48 50 50 39 40 32 29 31 28
64 66 65 60 55 49 45 44 41 44 41 40 34 48 59 63 51 51 56 43 41 45 50 46 45 50 47 47 39 36 35 33
60 59 66 63 50 48 52 49 47 50 49 44 43 42 46 60 66 60 58 60 53 45 46 46 37 46 46 43 40 39 36 33
54 56 60 64 54 45 49 53 56 57 55 53 50 44 45 49 69 70 72 68 58 59 52 51 44 50 51 45 45 35 35 37
42 46 53 57 50 55 57 57 57 54 49 48 50 49 48 45 42 49 72 77 74 67 55 48 49 55 45 35 41 38 35 41
52 51 53 58 51 53 62 61 57 52 54 50 48 46 42 41 39 44 47 51 57 82 73 61 55 57 57 46 40 40 37 38
63 64 47 56 56 65 61 55 51 45 53 40 40 43 42 43 44 45 50 52 51 46 56 67 66 57 54 51 45 44 42 40
54 65 48 34 46 60 60 65 40 46 39 39 46 46 50 46 45 45 45 56 62 56 55 55 49 62 62 56 52 47 45 46
55 42 39 50 66 31 44 33 51 52 43 40 41 43 44 46 47 49 55 57 61 60 59 54 53 50 58 65 64 52 51 45
55 57 64 64 61 62 60 51 43 39 40 44 39 37 43 42 40 47 58 26 48 53 45 54 43 47 50 46 47 50 50 46

GFSFLT2_500_spd_012.txt.gz
Wind_Speed
32 25 31 30 42 35 43 44 51 42 50 35 28 24 20 14 20 20 18 13 10 15 17 12 6 8 11 17 17 15 16 16
34 35 38 38 31 39 42 45 49 46 50 39 32 27 21 18 22 21 22 21 15 15 14 14 5 6 11 17 16 14 11 12
41 47 40 39 41 41 42 41 40 35 34 38 32 31 24 26 22 19 25 19 18 17 17 21 19 10 10 16 16 15 11 11
49 44 44 47 44 42 44 40 38 34 26 14 35 36 29 27 25 17 20 22 23 19 20 24 14 14 12 17 17 17 16 13
56 56 55 57 50 46 45 44 45 44 31 21 29 40 39 35 29 25 29 31 27 23 22 23 18 14 15 18 15 15 17 14
66 56 54 57 53 51 50 52 47 43 42 22 30 45 40 35 32 32 37 43 32 30 26 26 26 23 19 20 19 18 18 13
71 64 53 56 55 55 55 52 54 39 44 36 26 47 45 37 34 28 21 42 28 31 28 33 33 26 17 20 22 21 22 16
76 70 64 59 60 60 57 54 52 48 45 38 32 38 52 51 41 31 25 32 28 26 27 31 29 27 21 20 17 21 23 22
76 70 61 56 67 65 61 58 54 53 44 37 40 34 50 55 52 43 34 38 36 31 33 36 31 30 30 31 24 28 27 23
77 68 66 71 63 63 63 59 55 56 48 41 39 38 43 53 55 51 52 43 38 43 37 41 38 38 35 35 38 33 30 26
79 75 71 69 68 61 62 58 52 56 55 50 42 39 38 49 58 56 51 52 50 49 37 41 47 43 46 44 38 34 33 33
53 73 73 74 68 61 53 59 57 58 57 53 45 43 46 41 51 59 60 57 48 50 52 45 46 49 47 45 39 41 37 36
58 53 65 77 72 54 52 58 62 60 56 53 50 44 42 38 36 50 57 63 65 59 57 60 52 47 48 46 46 49 39 34
66 44 53 63 62 63 55 53 59 59 56 52 50 46 41 36 38 41 45 50 64 67 70 66 63 65 62 55 47 50 49 44
53 35 55 60 57 51 59 53 58 60 58 56 54 52 48 46 39 39 41 51 61 64 69 73 63 59 64 64 56 50 50 43
64 44 46 67 69 56 66 62 61 62 60 60 57 55 53 51 43 45 45 46 51 58 68 77 76 70 64 63 58 54 49 47
66 51 45 69 68 65 65 66 64 62 62 59 57 56 55 48 48 52 52 55 56 52 52 56 59 62 60 68 66 61 65 48
61 50 49 58 66 70 61 59 66 63 56 56 59 52 48 46 49 54 56 54 52 55 52 55 61 65 53 53 62 64 60 55
60 38 48 52 53 58 45 55 61 51 58 54 42 43 51 49 52 55 54 54 53 47 54 61 73 40 56 56 58 57 64 60

GFSFLT2_500_spd_015.txt.gz
Wind_Speed
35 31 35 33 40 32 45 44 47 42 38 31 33 30 28 23 23 19 17 11 4 5 10 22 19 13 9 7 7 7 8 14
36 40 43 40 30 38 45 47 46 37 35 30 32 32 27 30 23 15 15 12 10 8 5 16 11 10 8 12 8 9 9 11
44 51 43 40 43 43 43 45 41 34 29 30 27 32 30 28 24 22 19 15 11 10 10 12 16 15 13 13 11 8 10 14
54 46 42 47 45 47 49 40 36 36 34 22 23 29 31 32 32 29 25 22 19 16 17 17 16 13 16 14 12 10 14 16
57 56 58 58 54 51 45 44 46 42 31 21 20 23 37 40 38 36 30 27 27 28 27 23 18 14 16 17 12 15 16 16
64 60 58 60 59 54 50 55 44 44 34 20 25 28 34 45 44 39 36 34 36 30 30 30 23 17 19 15 16 18 17 17
70 67 66 64 62 56 58 54 55 38 42 32 25 29 29 42 46 47 43 38 41 31 35 34 24 24 25 22 18 21 19 10
78 74 69 71 68 63 61 57 56 48 49 37 26 34 35 39 49 51 46 43 45 40 27 25 30 26 26 29 22 22 22 12
84 79 76 74 70 67 62 61 59 56 46 40 36 36 38 37 39 45 50 47 45 44 30 29 19 23 28 25 25 24 23 21
87 81 81 72 67 67 66 65 62 60 52 49 42 37 37 41 44 49 51 51 45 43 41 39 32 29 30 31 30 32 32 29
88 85 84 80 74 70 65 65 64 64 59 55 50 43 42 42 44 45 53 54 53 48 47 47 44 32 34 38 35 33 35 35
87 87 86 83 77 75 68 67 61 63 62 55 56 53 47 40 41 44 47 55 57 54 52 52 49 37 33 34 39 41 43 38
92 89 85 81 74 72 64 70 66 62 62 55 53 52 43 42 39 44 47 51 57 56 54 54 49 46 46 46 45 40 43 44
89 87 78 75 69 55 48 60 67 61 58 59 54 49 45 41 40 36 42 48 53 56 57 56 56 52 48 45 43 42 44 43
76 85 81 62 58 60 49 40 47 59 59 54 55 53 50 47 43 34 37 37 41 59 58 55 52 53 51 52 45 48 51 53
51 62 80 57 55 55 56 52 46 44 56 54 52 55 52 52 47 40 39 40 42 44 53 65 67 59 57 55 58 60 57 56
49 41 58 59 54 54 60 61 59 57 51 57 54 55 58 56 53 50 43 42 44 47 48 51 51 54 62 67 73 70 61 68
38 52 39 60 48 59 63 60 62 64 65 62 54 55 57 59 58 56 52 52 52 54 59 61 56 54 56 65 64 65 67 67
43 47 50 52 35 31 54 51 63 64 66 62 60 57 60 62 61 58 58 58 58 62 62 55 50 54 59 60 63 68 74 75

GFSFLT2_500_spd_021.txt.gz
Wind_Speed
37 32 35 34 32 27 38 37 36 27 16 11 18 31 32 29 30 31 28 26 26 25 23 22 20 15 12 14 16 15 16 20
41 41 43 39 33 37 38 38 35 25 20 11 14 20 27 31 30 32 27 27 25 24 22 19 16 17 16 17 15 17 15 16
49 49 48 43 42 40 39 39 34 26 17 12 13 19 27 35 32 32 30 28 28 26 23 22 19 21 18 18 18 15 14 15
53 51 47 45 44 43 45 36 31 31 28 18 13 19 26 34 36 34 32 36 33 32 30 27 25 25 23 22 20 15 19 18
54 56 54 53 52 52 48 47 45 37 26 19 12 16 21 33 41 39 38 40 39 36 34 30 27 24 28 27 25 21 22 21
59 58 56 55 55 54 50 53 43 39 31 19 23 17 21 27 38 42 41 41 41 40 39 34 30 31 29 29 29 27 22 21
64 63 62 61 59 58 57 53 52 38 37 31 23 24 23 27 36 42 44 43 44 44 40 37 34 29 29 29 29 26 22 19
70 67 66 65 62 63 60 56 53 44 43 34 28 27 28 30 33 40 45 48 47 46 44 39 39 32 29 28 22 29 26 22
74 72 70 70 65 63 60 58 55 48 44 36 34 29 28 31 30 33 41 46 48 46 43 42 41 37 31 33 27 29 35 33
78 76 76 71 70 67 65 61 59 53 49 41 38 35 34 36 36 35 34 33 33 41 44 41 41 35 39 34 34 30 36 32
82 80 77 76 73 71 67 62 62 58 52 47 43 40 36 39 40 41 41 38 36 33 31 35 34 31 34 37 35 31 30 32
87 84 83 76 73 73 70 67 64 60 55 50 46 48 37 39 42 41 42 40 38 36 34 34 33 32 31 33 34 32 30 24
89 90 88 82 78 76 73 70 65 64 60 55 50 49 47 41 42 41 40 42 41 39 38 38 35 35 34 34 32 32 35 39
96 96 94 85 80 79 76 73 68 64 61 58 55 52 46 48 45 43 43 43 45 41 39 37 36 38 39 39 42 42 43 42
96 101 95 92 86 81 79 75 70 67 63 58 53 52 49 50 48 46 40 41 44 44 40 37 36 36 38 40 41 44 46 44
82 95 96 98 93 90 84 78 74 70 66 64 60 56 52 50 49 49 46 42 39 43 43 41 40 39 37 41 42 44 46 46
64 74 85 92 94 94 88 83 77 72 69 64 59 59 56 55 50 47 47 48 44 40 40 40 41 42 39 38 42 47 50 53
44 54 70 73 89 94 89 85 81 76 74 65 55 53 48 41 45 50 50 48 48 46 43 36 40 40 41 39 41 41 43 52
29 42 52 58 68 75 79 80 76 77 71 55 53 48 38 38 39 37 35 35 38 40 42 41 35 37 45 47 47 47 44 45

GFSFLT2_500_spd_024.txt.gz
Wind_Speed
40 37 37 35 36 27 37 36 32 21 21 22 18 35 42 37 32 28 28 30 27 26 28 28 27 23 20 19 19 18 19 20
44 41 42 42 30 41 39 36 29 25 20 16 16 28 40 39 33 27 25 25 29 30 29 27 25 25 25 24 21 20 23 22
51 51 48 48 47 43 36 32 29 24 18 18 18 23 34 37 31 28 26 24 27 30 29 26 25 26 24 23 23 22 19 17
54 51 52 47 42 41 41 35 31 24 18 18 17 23 32 38 34 34 32 31 30 32 31 29 26 24 25 23 23 19 18 18
56 57 58 55 49 49 45 38 35 32 29 23 17 20 29 39 43 41 33 33 32 37 34 31 29 27 24 22 22 22 22 20
57 50 53 56 54 54 50 46 42 39 36 24 19 21 30 36 43 44 39 37 35 38 34 36 34 31 29 25 25 27 28 25
62 64 61 59 58 56 55 49 47 41 38 35 25 24 24 34 38 44 44 45 45 44 45 42 41 36 32 29 29 30 30 26
65 62 63 64 61 61 56 52 48 43 40 37 33 25 25 29 36 41 48 50 47 47 47 47 43 42 37 32 31 30 28 19
68 65 64 68 64 62 57 54 50 43 41 35 34 29 27 29 37 41 48 50 53 50 45 42 44 42 41 37 36 30 23 27
73 74 71 66 65 65 60 54 51 49 48 42 40 36 34 33 35 38 39 45 44 46 47 45 43 42 43 42 39 36 30 24
76 78 69 72 72 70 66 62 59 55 52 48 45 41 35 33 32 35 38 38 39 41 33 33 38 43 46 47 43 42 35 28
79 78 77 71 73 75 74 65 61 60 53 50 47 43 35 31 37 39 41 39 38 37 34 31 32 38 44 40 32 38 39 31
82 83 80 78 81 78 73 62 67 63 59 56 50 47 42 42 36 36 40 41 40 39 36 34 32 32 31 33 31 33 37 37
86 87 87 83 81 79 74 76 68 68 63 59 54 51 47 45 40 38 38 40 41 42 40 37 36 36 33 31 32 33 34 33
89 94 88 87 84 82 77 79 70 67 60 60 58 54 51 47 44 42 40 39 39 42 40 38 38 37 36 37 36 35 36 38
90 92 94 89 84 84 82 77 75 71 65 60 54 52 52 49 46 46 44 38 41 40 40 41 41 38 38 37 38 39 39 41
77 87 91 93 91 87 83 82 77 74 69 64 60 57 53 51 48 45 45 40 38 35 37 38 37 36 38 39 39 40 41 40
56 65 80 87 90 89 85 84 78 75 71 63 59 57 56 53 51 49 46 42 42 40 39 38 35 36 33 33 36 39 41 42
35 52 66 74 84 86 87 85 82 79 75 68 64 60 53 48 44 46 49 50 49 46 46 44 37 35 32 34 37 39 40 42

GFSFLT2_500_spd_027.txt.gz
Wind_Speed
45 40 42 41 41 30 24 23 24 25 25 23 29 32 32 34 36 32 32 26 28 26 27 28 28 26 23 23 21 19 18 19
45 47 46 45 33 39 41 28 25 24 21 24 20 23 30 34 37 34 32 24 29 28 28 28 27 27 26 24 21 22 20 19
52 55 49 46 47 42 36 36 23 17 13 18 26 16 30 34 37 36 32 24 28 28 29 29 29 28 25 23 23 21 20 20
50 50 49 44 47 43 41 36 33 19 15 26 23 22 28 35 41 41 36 29 24 25 30 32 29 28 26 25 24 23 23 22
41 43 52 56 51 47 39 34 34 32 17 30 23 19 29 32 40 43 39 34 26 28 30 31 31 30 28 27 23 23 23 21
53 49 46 54 55 50 45 46 35 33 26 35 26 23 30 33 40 46 45 43 38 35 30 31 30 29 28 25 24 24 23 25
55 31 35 46 53 53 53 46 43 26 30 27 32 19 32 37 37 43 46 40 37 34 34 31 29 30 31 30 28 26 24 24
65 45 52 53 43 51 50 50 44 38 27 28 30 23 25 38 39 38 44 43 39 38 37 37 37 37 34 32 31 27 24 21
67 67 64 65 61 52 43 48 48 49 40 30 36 38 30 29 32 40 39 46 43 40 39 38 38 39 37 37 35 29 28 21
70 68 64 62 56 58 54 48 49 47 48 52 48 33 25 30 31 33 36 44 45 44 44 43 41 42 43 43 39 36 33 28
69 64 56 63 60 58 60 56 50 49 46 46 44 40 33 28 27 30 35 41 45 50 49 50 49 44 39 37 38 38 36 33
72 63 44 27 46 67 67 61 59 55 49 51 51 49 39 39 39 39 42 41 41 41 40 43 43 47 46 41 37 38 40 42
73 69 52 40 40 62 64 44 58 61 60 58 56 51 46 42 36 38 38 38 36 35 33 32 33 36 38 39 38 39 45 46
73 72 62 41 55 52 54 67 64 66 63 60 59 51 44 45 40 38 39 42 42 39 37 35 32 31 30 31 36 39 40 41
67 75 72 65 61 68 80 69 67 70 64 60 57 53 48 46 43 39 41 41 42 39 40 39 35 32 31 33 34 33 32 32
78 80 81 80 83 85 80 78 78 65 60 62 58 56 52 46 45 44 43 40 40 41 40 39 39 38 35 34 33 35 36 35
82 82 86 89 89 87 83 80 76 72 69 63 59 56 50 49 48 46 45 43 42 41 40 41 39 37 37 38 36 36 37 36
68 76 85 86 85 85 81 79 78 74 72 67 63 60 54 51 46 42 45 47 46 43 41 43 42 43 40 39 38 38 39 39
53 62 74 87 92 90 86 87 80 76 73 68 62 60 58 54 50 47 45 45 45 44 43 42 42 42 41 39 38 40 40 39

GFSFLT2_500_spd_030.txt.gz
Wind_Speed
45 44 44 44 44 32 30 22 25 28 25 22 29 40 33 32 30 31 30 28 25 16 20 23 22 19 19 21 19 19 19 18
40 43 45 46 35 38 38 30 24 18 22 18 24 36 43 39 35 33 32 32 24 13 20 22 23 23 22 21 19 19 19 18
36 49 50 47 45 40 35 34 23 16 17 20 21 21 30 30 37 38 37 35 30 14 20 23 25 24 24 22 20 18 16 16
36 42 43 48 46 43 42 38 34 21 16 22 25 24 24 32 34 39 36 34 34 18 21 25 26 24 24 22 20 20 21 19
42 35 39 49 50 48 38 35 37 33 18 24 25 22 22 25 32 29 32 34 35 28 20 22 25 25 24 23 22 23 21 18
60 52 40 47 45 44 42 40 36 36 23 28 26 30 31 28 31 34 36 38 36 35 24 22 22 24 25 24 24 22 18 16
55 41 29 43 45 45 47 40 40 26 31 29 32 25 34 35 32 31 32 36 36 38 30 25 27 26 26 27 25 24 22 19
63 52 43 42 38 41 42 43 32 31 23 33 35 27 26 36 33 35 39 45 49 46 37 29 23 25 28 28 27 27 22 19
69 60 50 44 43 40 40 41 38 41 29 32 34 33 29 33 39 38 34 34 35 41 39 33 28 24 30 29 28 25 23 21
64 61 51 44 47 45 37 40 39 40 38 18 20 27 34 36 40 39 36 33 31 33 35 32 30 28 29 32 32 28 24 21
68 64 58 45 59 51 46 35 33 37 48 43 42 42 46 41 29 30 34 37 37 34 34 35 36 35 38 37 33 30 26 24
67 57 51 43 36 56 48 49 48 53 53 63 59 55 55 35 35 39 37 35 32 32 35 38 37 38 40 36 31 29 26 30
60 65 45 47 35 48 52 57 63 63 62 64 69 65 50 39 38 35 35 36 34 32 32 32 25 23 26 26 24 21 33 35
62 54 48 43 49 47 55 58 70 69 67 64 61 58 54 50 40 39 37 35 36 36 35 34 32 28 25 25 28 28 33 32
62 60 43 36 51 57 58 62 57 66 69 64 61 61 59 46 35 40 41 41 38 36 35 33 32 29 25 26 27 29 34 38
57 69 56 45 48 54 62 62 67 72 68 64 63 59 45 43 46 47 45 41 39 39 39 39 33 34 32 29 28 29 29 31
69 65 76 59 58 64 58 59 66 67 69 64 59 54 55 54 49 47 43 40 40 40 42 38 34 34 34 32 33 34 32 31
64 71 76 82 75 81 80 69 73 71 67 55 51 54 53 49 50 51 46 43 45 43 43 42 40 37 36 34 34 36 35 35
74 77 85 86 86 86 85 80 75 70 64 57 60 58 48 43 47 49 45 44 48 45 44 42 41 43 41 39 38 38 38 36

GFSFLT2_500_spd_033.txt.gz
Wind_Speed
46 44 43 40 45 36 34 34 37 40 39 33 28 33 36 32 38 34 32 15 7 9 10 13 15 17 18 19 21 20 19 17
40 43 44 47 34 40 39 37 33 27 24 13 28 34 41 36 41 29 26 20 20 10 8 10 16 18 18 18 20 20 19 18
37 46 50 50 44 39 37 37 30 22 7 7 7 6 25 34 27 23 21 27 20 8 6 9 15 18 20 18 17 16 16 17
56 43 45 42 49 43 43 37 31 19 20 21 21 22 14 18 33 27 28 34 25 13 12 12 12 17 20 20 18 19 20 19
58 51 45 40 46 47 41 35 37 32 25 15 18 17 19 16 23 41 37 36 34 25 16 10 13 17 17 20 20 20 18 17
61 58 52 46 39 42 46 43 35 36 19 10 13 18 22 14 25 28 44 39 36 31 20 14 13 17 18 20 21 20 18 18
64 58 53 42 46 36 48 43 41 39 28 21 15 18 22 21 21 26 33 43 43 34 25 19 18 18 21 21 21 20 18 18
68 57 44 39 41 34 38 45 38 43 32 25 25 25 26 26 29 27 34 36 37 38 34 27 24 22 26 26 22 20 18 16
67 58 49 45 46 32 30 36 44 48 34 23 29 30 33 31 33 37 37 43 45 42 38 29 22 17 16 22 26 24 21 19
71 59 59 43 47 49 34 28 41 42 29 24 21 27 30 35 28 31 39 40 43 42 30 22 24 21 19 24 29 29 25 23
73 65 62 44 40 38 46 41 44 46 31 31 36 38 40 41 39 38 39 38 32 27 24 23 25 26 20 22 26 27 27 24
73 65 60 54 51 47 47 50 50 51 42 41 40 37 43 41 46 39 36 34 34 32 28 24 25 25 26 25 25 23 23 21
72 56 67 56 59 55 51 54 57 56 49 49 52 52 51 47 45 45 38 34 34 32 32 34 30 29 30 28 25 27 29 28
54 67 64 61 63 62 61 60 64 64 51 61 60 58 54 50 39 42 40 39 36 35 31 30 33 33 32 28 22 23 25 26
62 42 67 52 62 69 71 68 71 70 62 68 66 63 61 58 50 40 38 38 38 37 35 33 30 27 23 24 24 22 33 32
70 48 64 50 46 77 74 69 71 73 75 76 74 71 66 62 54 48 40 37 36 37 37 34 30 26 27 25 24 26 26 31
59 60 68 62 52 55 81 69 70 74 76 79 80 75 71 68 63 51 35 39 43 43 41 37 33 32 33 31 28 28 30 29
65 63 69 72 65 51 62 79 71 73 77 77 74 70 66 63 58 42 49 47 44 45 43 40 37 36 35 34 34 34 33 32
62 66 67 64 65 66 52 65 68 73 76 75 72 71 68 64 57 59 56 48 46 49 45 42 42 41 38 36 35 35 35 36

GFSFLT2_500_spd_036.txt.gz
Wind_Speed
53 49 47 42 49 41 43 47 46 48 48 41 39 37 33 30 32 28 18 14 9 9 7 16 18 22 21 21 20 19 23 22
56 46 48 46 40 44 46 44 46 44 42 39 38 31 26 32 32 24 25 18 14 10 6 13 20 22 22 20 21 22 23 23
49 60 52 52 50 45 42 44 41 34 33 28 33 35 35 35 34 30 23 17 18 16 9 9 21 21 22 19 21 21 19 22
63 53 53 48 51 46 45 45 37 28 24 38 32 31 29 45 45 36 21 21 14 14 11 13 16 21 21 18 17 22 24 23
66 56 57 51 49 48 46 38 39 32 35 40 33 31 29 33 51 33 28 24 21 17 13 14 13 20 20 20 20 23 23 23
71 64 54 58 54 51 49 45 39 36 31 30 25 23 26 21 22 30 32 30 30 23 20 16 12 16 20 22 23 22 23 22
73 68 63 59 54 50 53 48 41 33 36 23 25 19 22 19 14 26 28 33 29 29 25 19 17 12 21 24 24 24 22 21
70 66 60 56 55 50 41 44 41 36 37 25 27 24 27 20 17 19 29 33 34 30 28 24 22 17 16 23 26 25 23 21
69 65 60 55 50 48 35 31 36 39 37 31 30 27 29 21 20 21 22 21 35 38 33 30 28 24 18 17 25 27 23 24
57 67 63 56 47 48 41 34 32 43 44 34 34 30 33 32 27 28 27 28 28 29 31 34 31 31 27 26 24 25 23 21
55 69 64 59 49 52 53 46 40 48 44 40 37 36 37 38 35 36 29 29 29 26 23 20 24 28 27 19 24 26 26 23
65 64 69 64 53 55 54 50 43 43 49 38 41 37 39 39 38 38 34 33 32 28 23 20 22 23 22 22 24 23 29 26
72 66 67 67 66 61 49 57 52 46 53 46 44 44 44 42 43 40 37 34 32 30 26 22 22 31 31 30 25 21 27 34
71 70 66 65 55 56 60 64 57 55 58 56 50 47 46 46 43 41 37 35 34 30 29 29 28 28 32 34 34 34 33 32
69 81 66 69 63 52 64 67 58 57 65 64 55 53 53 50 46 44 41 40 39 38 36 34 32 31 31 30 29 31 34 35
68 78 73 70 66 47 65 72 65 64 73 74 64 57 55 52 51 48 42 44 43 40 39 34 30 28 27 26 27 30 33 36
69 70 81 53 61 53 57 63 71 69 80 73 66 63 60 58 56 52 44 44 46 43 39 37 36 35 33 29 27 27 29 32
65 69 77 66 56 58 56 64 68 68 74 76 69 65 64 61 60 57 51 48 46 39 34 35 36 36 34 32 32 30 29 30
55 66 66 58 59 51 57 51 58 79 75 79 78 73 70 66 63 61 57 56 50 41 40 40 41 41 38 36 33 33 33 34

GFSFLT2_500_spd_039.txt.gz
Wind_Speed
65 63 56 54 59 51 51 51 47 51 55 40 35 36 32 30 30 32 21 16 16 8 14 19 22 26 23 22 26 30 28 26
68 58 55 53 51 53 55 54 52 54 54 41 38 33 30 29 26 34 29 23 19 17 17 18 23 27 27 25 22 24 27 26
66 69 62 60 58 54 48 52 51 50 44 33 35 35 31 22 19 24 32 32 23 19 20 14 24 26 27 26 24 20 23 26
68 66 63 59 60 54 54 53 51 47 37 32 33 37 36 30 24 22 23 25 27 26 21 18 18 26 27 27 25 23 24 25
61 63 69 64 61 56 52 49 49 44 21 35 39 41 44 41 32 30 27 25 27 28 29 23 14 27 28 28 26 27 28 26
70 68 72 65 58 57 52 51 48 43 27 32 36 40 44 48 44 43 39 34 27 34 29 23 17 25 28 28 26 27 29 28
73 67 67 67 61 59 59 50 47 36 36 37 32 32 38 44 48 32 43 40 36 33 29 25 22 19 26 29 27 26 25 26
70 70 62 62 61 59 57 53 44 38 43 42 35 38 38 38 29 23 41 44 35 32 26 31 25 20 18 27 28 29 27 27
71 69 62 59 67 61 57 54 46 42 47 42 37 38 36 36 28 18 24 32 33 27 25 29 23 19 13 23 28 30 31 31
59 63 59 61 63 61 59 56 50 46 50 40 39 39 41 32 23 21 21 22 25 26 24 22 21 20 18 19 22 30 33 30
55 64 56 60 60 59 59 54 53 49 50 45 41 39 45 36 28 23 25 28 27 29 30 30 27 23 22 24 23 22 32 30
58 69 57 59 61 54 57 52 53 52 48 48 47 46 49 45 34 33 32 33 28 25 23 23 28 29 27 27 21 19 20 28
60 69 59 60 57 57 54 58 55 53 51 52 48 47 46 48 42 41 39 32 25 25 28 26 26 27 30 26 21 17 23 29
60 70 56 57 56 56 61 60 58 57 55 58 54 49 46 42 42 42 41 34 28 25 27 30 29 30 26 25 28 27 26 31
60 60 58 63 57 55 61 62 57 57 60 62 61 55 49 44 39 41 38 33 29 27 26 29 32 32 34 30 30 33 35 34
63 68 47 64 65 50 60 62 60 57 63 66 63 61 55 52 44 43 40 37 33 29 27 28 28 32 34 36 37 39 41 43
57 60 67 48 64 56 56 59 60 60 62 68 68 61 58 57 51 44 43 41 37 35 33 33 31 31 30 30 34 39 42 46
58 57 57 68 54 63 54 64 66 67 66 70 71 68 63 60 54 52 50 46 46 44 44 43 41 38 32 31 30 29 32 39
47 60 60 62 68 68 73 49 74 73 73 75 74 70 69 65 59 57 57 56 52 51 45 42 44 39 34 34 34 32 31 32

GFSFLT2_500_spd_042.txt.gz
Wind_Speed
68 65 63 63 63 55 55 55 54 58 59 50 37 37 40 36 36 33 32 28 23 17 17 20 20 23 25 26 29 29 30 29
70 68 67 65 64 58 60 60 59 60 56 49 37 37 42 38 39 33 31 30 29 22 16 22 23 26 29 30 30 31 33 33
73 75 66 67 67 66 59 59 60 60 54 40 40 36 34 40 38 37 36 34 30 26 21 18 26 27 30 30 30 33 35 35
67 70 65 68 68 68 67 64 61 60 52 38 37 37 36 39 38 37 37 36 33 26 26 23 24 29 29 31 29 28 32 34
65 65 69 69 71 68 65 61 61 56 49 42 36 37 40 39 38 38 39 35 37 27 30 30 24 26 30 31 31 31 30 30
69 64 71 70 71 68 69 64 59 57 41 37 36 42 41 42 42 41 38 37 39 33 32 30 27 23 31 32 33 33 33 32
63 69 69 69 70 72 71 66 59 51 33 35 35 38 42 44 45 45 44 43 44 41 39 35 32 28 31 34 35 35 33 32
55 65 64 64 69 71 71 65 60 45 39 41 38 37 42 50 53 51 52 51 45 39 33 35 33 31 30 33 35 34 32 33
47 62 64 67 68 69 68 64 56 43 44 42 41 40 41 45 48 49 35 51 43 41 34 36 31 29 33 34 34 32 30 35
53 66 63 67 65 70 66 62 56 45 48 49 48 46 42 40 46 36 25 26 36 44 40 35 32 28 31 27 32 33 32 33
51 68 62 60 61 67 65 59 54 48 53 56 53 45 42 37 31 26 27 33 46 46 41 36 32 28 29 26 27 33 31 32
48 67 58 58 61 63 64 58 52 52 57 54 50 46 43 39 38 32 27 34 40 44 34 29 27 28 26 23 22 26 27 31
51 65 54 55 58 57 59 57 53 55 55 55 52 49 47 48 43 34 31 31 36 31 32 32 30 31 27 27 22 19 20 27
45 53 58 55 55 53 52 56 53 54 54 58 55 52 53 49 45 38 30 33 33 32 31 32 34 34 33 32 28 26 23 24
49 48 55 56 50 55 55 50 51 54 57 59 59 55 55 52 49 45 38 38 39 36 35 37 36 34 35 31 31 25 24 20
39 51 45 56 42 43 50 47 50 54 57 59 63 60 57 55 52 50 49 42 37 35 33 39 38 35 32 30 27 26 26 23
45 44 46 51 47 45 46 52 46 53 53 58 65 64 62 60 57 55 53 52 46 41 34 36 40 37 35 33 32 31 31 30
50 43 46 44 54 50 49 49 50 50 54 55 61 66 64 63 61 57 50 51 49 44 37 33 36 42 43 43 42 40 39 37
46 44 38 46 52 42 45 50 52 53 55 55 59 65 65 65 62 56 53 48 43 41 39 36 33 31 33 35 38 39 41 42

GFSFLT2_500_spd_045.txt.gz
Wind_Speed
57 65 66 59 63 58 60 59 60 63 62 53 43 47 44 44 43 36 35 32 30 28 26 27 32 36 35 33 35 33 31 29
44 47 63 61 58 66 65 63 65 67 64 58 45 43 46 49 44 39 36 33 32 29 30 28 30 38 40 38 36 36 35 33
48 46 44 61 64 67 66 66 65 69 66 55 46 39 49 49 44 41 35 34 33 28 28 29 31 36 37 37 37 37 37 35
54 49 49 51 69 69 69 70 68 67 67 52 45 42 49 50 46 44 38 38 35 31 32 33 30 31 34 35 35 35 35 36
62 55 54 56 58 70 71 68 73 69 67 50 43 40 45 49 48 49 43 42 37 36 31 32 34 32 32 34 33 34 35 36
61 61 63 66 62 65 73 73 75 75 61 50 45 39 41 51 55 53 50 48 44 41 34 31 30 32 32 33 35 34 35 36
64 67 67 70 71 66 78 77 75 69 67 47 44 46 38 47 54 59 53 55 49 45 42 36 33 31 34 35 37 36 34 33
58 60 62 69 74 72 81 78 75 68 65 49 44 47 49 50 56 62 60 58 53 49 47 37 36 31 30 33 36 36 36 33
39 38 54 72 75 73 80 78 73 68 58 48 42 47 50 48 55 59 59 60 59 53 48 41 38 33 29 29 35 36 36 36
25 34 53 64 64 68 78 78 71 67 55 48 44 50 50 48 55 60 61 57 59 56 51 45 41 32 33 31 29 36 37 36
28 23 35 54 57 69 73 74 67 62 51 47 44 49 47 48 55 57 60 62 58 56 49 43 42 37 35 33 28 35 37 35
19 31 29 54 56 65 69 65 64 59 54 47 48 50 47 45 47 49 56 57 40 42 51 46 42 34 36 32 26 30 35 33
19 48 16 56 53 60 61 62 60 56 55 47 52 51 47 40 37 42 40 38 40 44 46 50 43 40 33 34 23 24 31 34
39 22 18 56 55 57 57 54 56 54 56 46 55 53 47 40 37 34 32 32 31 39 47 45 44 42 37 33 28 24 25 35
30 9 36 59 56 54 54 49 51 54 54 53 58 55 50 43 43 41 38 33 31 40 46 49 48 43 35 35 33 29 28 29
48 21 45 48 51 49 46 40 47 55 51 51 55 57 52 48 46 44 42 36 41 39 44 44 48 54 45 42 33 32 30 29
22 30 27 51 45 45 46 43 43 54 48 46 53 55 56 52 51 48 48 43 42 43 46 45 39 38 37 42 38 48 32 31
26 33 36 37 32 36 37 35 38 45 48 45 51 52 57 54 53 52 51 50 49 46 45 44 45 45 42 42 38 32 38 39
33 30 32 30 32 39 43 43 42 40 41 46 45 47 53 57 56 56 57 57 57 52 48 48 44 49 49 47 52 42 44 42

GFSFLT2_500_spd_051.txt.gz
Wind_Speed
56 56 52 47 52 53 38 30 38 35 46 47 44 51 51 28 39 36 37 37 30 30 25 27 25 26 33 31 33 33 32 31
52 54 53 55 51 45 53 43 41 34 36 36 44 52 56 54 45 42 32 41 35 33 29 31 27 26 30 36 35 35 36 34
46 48 45 50 57 56 40 44 45 38 36 31 28 37 51 52 54 47 44 47 38 35 33 34 32 28 27 34 38 38 36 36
51 44 45 47 35 44 56 53 46 46 40 26 26 29 38 48 49 51 49 44 40 37 36 37 36 31 26 28 38 39 39 39
53 54 51 51 54 50 48 47 45 42 45 26 30 42 42 46 49 51 52 52 47 41 41 40 37 33 27 26 29 39 40 41
52 31 45 50 55 52 46 45 51 47 39 37 27 30 28 52 43 50 57 57 54 47 47 45 41 37 30 25 29 34 41 41
56 56 53 57 67 62 62 61 50 53 49 58 43 39 29 30 39 49 55 60 57 52 53 49 44 39 34 27 29 31 38 40
58 59 58 61 63 66 66 66 65 68 69 68 61 48 42 39 30 46 56 62 59 59 58 52 48 41 37 30 26 29 32 37
51 54 57 67 67 67 66 70 70 68 70 67 74 58 46 45 40 49 50 58 64 55 58 54 48 41 37 31 27 28 29 34
36 41 44 53 63 68 70 70 71 73 71 71 67 60 53 48 50 51 59 64 63 58 59 53 49 46 40 37 32 26 27 31
43 45 45 51 43 63 79 81 82 75 74 71 62 66 60 65 63 55 51 54 56 57 60 56 54 49 43 39 34 30 27 26
40 48 51 46 38 53 70 82 75 71 70 68 59 63 72 71 66 60 52 51 56 59 61 59 57 52 46 41 39 33 26 21
32 41 46 43 49 57 66 71 71 70 69 70 64 60 64 75 61 57 55 54 51 60 62 61 58 55 51 46 41 32 28 28
17 28 28 25 35 52 57 58 62 70 66 68 65 67 71 73 67 61 52 47 50 54 64 64 62 60 55 50 40 42 37 32
17 16 16 6 14 27 37 35 53 62 65 62 64 62 69 69 62 57 56 49 48 51 54 62 64 63 58 53 51 46 41 37
7 6 8 3 8 29 35 41 40 59 66 64 65 59 68 62 56 48 52 52 49 51 54 57 61 64 62 61 55 50 45 44
9 9 2 5 10 29 28 25 41 31 45 59 58 59 63 59 54 49 47 48 47 49 53 55 58 59 64 60 56 53 49 49
7 3 10 4 12 37 27 42 32 34 33 47 53 60 62 58 52 49 43 42 44 48 50 54 58 57 55 57 58 61 57 55
13 6 5 7 10 29 35 33 34 37 35 47 53 57 58 55 51 47 43 45 43 47 47 48 52 52 53 56 57 58 60 58

GFSFLT2_500_spd_054.txt.gz
Wind_Speed
40 48 49 45 41 43 42 30 37 27 31 38 35 37 28 32 37 37 38 30 29 27 22 21 18 14 14 27 27 27 27 26
33 40 50 51 47 34 42 43 40 29 29 26 27 37 45 48 46 48 38 47 36 34 25 22 22 21 16 19 29 29 30 28
22 43 52 49 53 52 48 41 50 37 33 25 21 28 29 41 52 53 45 23 35 42 27 25 25 26 20 17 27 30 30 29
45 35 40 46 48 48 50 48 53 42 42 26 20 24 33 33 39 49 49 51 45 33 35 27 25 25 24 19 19 30 31 33
44 48 38 41 44 44 33 48 51 49 41 32 17 30 20 26 26 34 43 46 40 26 20 23 30 25 26 22 19 20 31 33
50 37 43 41 44 45 45 40 42 55 33 44 28 34 36 37 33 36 36 39 49 46 39 30 31 30 27 25 23 22 24 34
54 54 48 53 56 54 50 56 49 47 44 53 40 47 46 46 46 40 36 40 44 46 55 22 32 35 32 30 27 23 23 27
57 57 56 61 55 57 58 58 56 58 62 62 44 49 50 52 52 52 53 33 35 47 47 42 43 36 36 33 29 25 23 21
46 51 56 62 62 60 59 61 64 67 67 70 62 59 49 47 47 52 55 49 47 51 44 44 41 37 40 35 32 27 24 24
28 38 48 56 61 64 64 67 65 68 64 67 75 73 55 47 48 47 53 57 57 57 60 49 25 50 35 37 34 27 25 24
35 37 37 42 52 55 59 65 66 73 75 68 77 76 64 49 53 48 46 52 58 57 59 57 62 42 36 39 34 31 25 20
33 40 44 35 39 51 62 77 75 76 77 71 71 82 72 52 62 52 49 51 55 59 61 58 49 45 45 35 34 33 26 19
23 29 33 41 43 53 52 67 74 81 81 73 70 72 74 59 60 59 31 62 57 56 54 54 52 50 49 41 40 32 30 29
20 25 28 33 43 55 56 59 63 72 79 77 69 67 69 72 79 65 69 36 53 50 51 52 54 53 50 48 42 38 38 34
22 23 23 24 31 38 46 58 66 73 72 76 73 67 72 82 83 83 59 66 51 53 55 51 51 53 52 52 49 46 42 38
15 16 17 13 19 23 29 38 41 59 69 63 68 70 77 73 89 82 71 62 60 55 55 52 51 53 53 55 54 51 48 43
9 8 8 9 13 18 12 17 28 37 56 51 61 71 70 68 70 72 79 75 66 55 60 57 55 54 56 58 57 54 50 48
12 12 7 4 9 9 9 9 18 37 40 49 53 63 59 59 64 62 66 68 68 62 57 52 53 54 54 57 58 59 54 52
20 16 13 6 4 2 5 7 19 34 38 41 53 57 53 52 56 61 61 60 58 59 59 54 47 51 53 53 53 57 58 56

GFSFLT2_500_spd_057.txt.gz
Wind_Speed
43 43 42 41 48 41 46 44 44 39 35 29 20 24 29 27 25 22 22 25 29 29 18 16 13 11 13 18 20 22 25 25
38 38 47 45 39 44 45 48 50 47 39 25 0 9 20 24 28 27 34 30 33 33 27 22 18 17 13 13 19 25 25 26
39 41 35 42 51 50 49 51 49 47 43 33 17 7 18 16 21 22 25 35 38 43 28 29 27 23 17 13 13 21 24 26
45 46 49 48 46 51 54 51 54 51 44 29 23 10 16 18 25 23 25 30 38 21 43 34 25 23 21 16 13 16 27 28
43 41 37 48 48 49 54 57 57 54 50 41 31 15 9 27 32 27 23 31 32 34 28 28 26 25 23 20 16 15 18 28
42 53 49 48 48 44 52 58 60 56 53 46 41 31 22 29 40 36 36 25 20 29 32 22 38 31 23 20 18 17 15 17
48 51 55 58 54 51 51 59 64 62 58 52 52 45 36 37 39 41 37 32 27 31 36 27 27 30 31 25 17 17 18 15
56 54 56 59 62 61 60 55 63 65 67 59 62 58 48 45 43 40 39 42 37 38 39 37 35 35 33 34 21 17 19 18
40 47 56 63 59 61 62 60 60 63 64 68 71 72 60 52 50 47 38 29 35 42 37 34 29 35 52 36 26 22 22 20
27 30 40 54 59 62 63 66 61 66 64 60 82 77 68 57 55 55 52 57 46 46 40 32 37 48 47 41 38 29 26 22
33 32 33 36 51 58 67 67 64 69 69 65 76 76 75 65 60 55 58 59 55 58 53 49 50 48 43 65 36 34 32 21
22 25 30 23 30 39 54 72 69 71 73 64 69 74 75 63 66 60 60 63 62 61 55 51 56 45 48 40 40 33 27 23
23 25 19 33 36 43 49 66 69 77 79 74 73 65 74 80 63 68 68 62 59 58 52 47 56 48 27 47 25 19 21 25
19 20 24 25 32 44 46 51 64 69 76 80 78 70 67 81 79 70 69 62 63 60 60 51 51 46 43 22 29 28 33 28
19 21 27 25 26 34 42 48 55 63 69 79 81 77 73 71 85 82 71 65 56 55 58 47 57 54 46 50 49 36 36 34
16 20 19 23 26 34 37 39 41 51 64 76 85 83 79 74 76 87 84 71 69 54 52 53 60 55 50 47 49 43 41 41
16 19 18 20 21 27 33 34 36 39 46 52 75 88 85 80 82 75 79 84 78 60 54 49 50 48 50 48 50 49 45 45
19 14 12 14 17 22 26 25 27 33 36 42 59 57 86 90 84 79 78 87 88 79 55 50 52 45 44 41 46 49 47 48
27 26 17 12 10 14 19 20 18 21 28 30 29 49 52 90 88 76 75 75 89 88 75 65 54 47 48 45 44 47 49 48

GFSFLT2_500_spd_060.txt.gz
Wind_Speed
43 44 44 41 40 40 40 42 44 38 39 35 36 31 29 25 20 17 14 21 22 23 21 21 22 25 25 23 23 24 28 26
40 43 43 41 39 42 42 43 47 39 32 31 31 29 21 23 18 15 18 20 18 28 21 19 18 23 30 30 26 25 26 29
38 44 45 47 49 46 45 45 44 41 32 32 32 28 29 30 25 17 8 12 16 24 25 24 20 19 21 26 31 28 25 27
37 38 41 48 52 55 55 48 48 43 37 42 36 32 31 34 35 30 25 21 16 18 24 29 29 24 23 22 22 29 29 29
39 41 42 46 49 53 58 57 51 49 41 45 43 40 35 35 34 29 28 20 21 20 29 30 34 28 29 27 25 25 32 32
40 48 47 51 51 52 54 59 60 54 42 47 49 45 42 32 37 36 36 33 28 30 29 21 32 44 38 33 28 24 23 29
37 48 56 51 56 56 56 58 61 61 52 50 52 51 46 35 43 40 40 37 36 33 26 27 37 36 39 35 33 26 21 21
28 40 57 65 55 56 60 59 61 61 58 58 55 58 50 41 34 43 41 41 44 34 22 25 31 33 37 35 33 32 27 21
35 33 44 64 67 57 55 58 60 61 60 61 63 60 61 48 32 40 45 45 42 35 32 30 21 32 44 45 40 35 34 26
31 29 33 51 65 68 66 59 61 61 56 59 68 65 64 59 44 36 40 45 48 42 42 38 33 37 43 43 40 39 35 32
33 24 26 27 43 60 74 74 72 71 64 60 67 72 69 64 62 46 41 45 47 48 48 44 40 37 41 45 46 43 37 34
28 29 23 25 36 41 57 76 76 77 72 68 70 74 75 70 64 63 54 44 42 54 49 47 51 47 44 35 42 45 33 36
23 26 25 24 26 34 49 65 69 77 76 75 75 77 73 76 76 64 66 57 52 56 51 58 60 48 50 38 35 44 46 45
19 23 27 23 24 30 45 54 61 70 79 80 80 80 76 76 79 81 74 70 63 59 63 66 63 56 53 41 38 38 53 53
20 21 25 23 24 27 30 41 53 60 71 81 84 82 80 80 81 82 86 79 77 70 69 61 63 62 57 40 40 42 34 52
17 19 22 22 22 23 27 34 37 49 60 75 85 84 85 82 80 83 88 90 75 73 79 72 74 70 61 49 42 41 35 37
17 21 21 24 23 26 30 30 31 37 38 55 74 81 85 86 83 80 82 90 87 78 73 71 81 70 59 58 50 49 47 34
19 19 20 23 23 26 30 32 31 31 36 41 48 60 80 86 88 86 85 83 93 87 85 85 80 67 75 68 58 57 50 53
23 24 23 21 23 22 26 31 32 30 32 35 41 47 50 58 79 93 91 88 80 98 93 87 97 80 73 65 62 61 48 47

GFSFLT2_500_spd_063.txt.gz
Wind_Speed
41 40 36 35 36 35 39 40 43 39 38 35 32 30 28 22 19 15 24 25 22 19 18 21 24 26 24 25 28 28 24 23
41 42 41 39 39 40 39 42 42 37 42 43 41 39 33 28 21 23 28 24 23 23 17 17 24 28 25 25 26 29 30 26
40 42 42 43 42 44 42 42 41 38 40 43 46 44 40 34 30 29 29 20 22 31 28 25 23 23 25 26 25 24 27 30
35 40 42 44 44 45 46 48 46 43 42 44 39 42 41 34 31 35 32 28 27 23 30 28 29 27 23 23 28 28 28 30
37 38 42 44 46 46 47 48 47 47 48 46 43 39 40 38 36 35 39 35 36 31 32 33 33 35 29 27 27 33 35 33
41 44 42 41 44 46 48 50 49 51 54 50 49 42 42 42 41 40 40 39 37 34 34 35 38 40 36 32 30 30 34 38
26 46 47 45 46 47 49 51 50 54 57 55 52 49 49 44 45 43 44 43 41 39 40 39 39 43 40 41 38 36 33 34
23 25 43 52 49 52 54 55 53 55 57 58 56 52 49 51 51 47 51 49 47 46 42 42 40 42 47 45 41 36 37 34
28 25 24 34 55 58 59 61 59 59 60 62 60 58 53 51 53 51 52 55 51 51 46 50 39 39 48 43 45 42 41 39
32 34 34 37 37 45 68 66 67 66 64 65 64 62 60 56 55 58 54 57 55 54 50 44 25 23 36 40 48 47 44 43
35 35 35 39 41 43 41 72 71 75 72 72 71 66 61 62 61 59 61 59 60 57 52 48 39 33 35 33 46 44 43 44
29 32 35 31 35 40 43 45 73 77 78 78 75 76 68 66 64 63 61 62 61 62 59 57 51 40 41 36 40 54 53 45
26 29 32 31 32 37 41 40 50 73 81 83 83 80 73 72 71 68 68 61 65 66 65 63 58 49 51 43 40 48 50 46
16 24 27 25 28 35 37 35 33 47 72 88 87 87 81 76 76 75 74 71 67 68 69 64 61 54 52 48 46 45 47 47
11 16 16 16 21 28 31 34 38 39 47 75 91 90 90 84 83 77 77 77 79 70 72 70 62 57 56 54 57 39 36 36
11 13 14 14 15 19 27 31 31 34 41 47 70 86 95 92 89 83 80 80 83 83 77 75 72 66 64 64 60 57 46 41
14 18 19 18 19 21 22 22 26 31 32 35 40 61 77 87 91 90 83 83 83 91 87 86 75 76 76 75 66 59 55 48
13 18 22 22 23 23 25 26 25 25 28 31 31 32 44 62 78 88 90 85 86 85 93 86 82 70 78 75 69 61 56 52
20 22 26 28 27 25 26 26 27 24 26 30 32 32 36 42 49 71 85 89 88 86 87 97 91 88 84 71 73 60 64 59

GFSFLT2_500_spd_069.txt.gz
Wind_Speed
37 38 37 37 37 36 35 33 29 32 30 30 32 30 27 26 23 19 20 22 28 25 23 24 25 25 26 26 28 28 27 25
39 38 38 38 38 39 38 37 35 34 34 33 31 29 28 27 25 21 20 23 26 24 24 25 27 30 30 32 32 32 29 28
39 40 39 38 40 40 40 39 39 36 36 33 32 32 30 29 26 26 22 24 27 21 26 28 30 32 34 34 35 36 34 30
37 38 39 39 40 41 42 42 42 39 37 34 32 30 32 33 30 28 26 24 28 31 25 29 31 33 35 37 37 39 39 36
34 37 38 39 40 41 42 43 44 42 42 36 33 33 32 33 34 32 31 29 29 35 27 27 31 33 36 38 37 38 41 40
33 35 36 38 39 40 42 44 44 47 44 41 37 34 33 33 36 37 36 35 35 32 29 38 34 34 35 37 39 39 38 39
36 37 40 42 42 42 43 45 46 47 46 45 42 39 37 36 37 39 40 40 40 40 39 37 37 35 37 37 38 38 40 38
32 35 37 38 40 41 43 45 46 48 47 47 47 45 42 39 39 39 40 41 43 44 45 46 44 40 38 39 40 40 40 39
24 27 31 35 38 39 40 40 42 46 47 48 48 48 47 45 45 44 44 43 44 43 45 50 51 48 42 43 46 50 48 40
21 26 29 28 30 35 40 42 42 42 44 46 48 48 49 49 49 46 48 48 47 47 47 49 52 53 50 47 52 50 48 44
23 24 28 31 32 32 32 36 43 46 46 45 47 47 48 50 51 51 51 52 52 52 52 52 54 56 52 48 50 47 36 40
24 22 25 28 30 35 36 39 41 41 43 47 51 54 55 53 55 55 56 56 58 58 58 59 59 60 59 56 52 51 50 48
24 25 26 28 33 37 39 40 43 46 45 46 48 51 54 59 63 62 61 62 60 66 67 65 65 65 65 63 60 59 57 61
21 21 21 23 27 31 34 36 38 41 44 45 45 47 53 60 61 65 69 69 69 66 71 74 71 70 69 68 68 64 62 58
17 15 15 18 21 24 27 31 34 38 42 45 49 52 54 54 57 68 72 72 75 75 72 73 80 78 76 74 72 68 67 64
12 9 10 12 13 16 19 22 26 30 35 38 38 42 49 53 58 60 63 73 80 80 81 78 77 82 81 80 78 74 69 67
19 18 17 16 16 16 17 22 26 28 29 32 35 39 41 43 52 56 61 63 67 78 85 85 83 82 84 87 85 81 76 73
25 24 21 21 24 26 27 25 26 30 32 34 36 38 40 43 46 51 56 56 56 58 69 87 90 88 87 87 87 86 82 75
25 28 26 24 26 26 28 30 32 35 35 35 37 41 42 42 43 46 50 54 54 55 56 59 87 96 92 92 91 90 88 83

GFSFLT2_500_spd_072.txt.gz
Wind_Speed
41 41 42 42 41 31 28 29 24 30 37 32 38 36 30 25 25 23 20 22 23 23 25 25 25 23 23 25 27 30 28 23
41 40 41 42 40 40 36 26 27 29 34 39 38 40 34 27 23 25 24 21 27 27 26 27 28 28 28 29 29 33 33 29
42 43 43 42 43 42 32 27 25 28 36 37 35 35 36 31 27 26 23 24 26 30 30 27 31 31 31 31 32 34 32 30
43 42 42 42 45 43 40 38 35 28 37 34 36 35 34 31 30 29 29 25 30 36 28 27 30 32 31 32 32 34 35 35
38 39 41 43 43 42 43 39 30 30 38 33 35 33 34 34 32 31 31 30 28 27 23 27 26 26 28 30 32 33 35 38
26 33 39 42 42 43 43 41 28 34 43 38 35 35 35 33 35 36 34 33 32 31 30 29 32 28 30 31 31 32 33 36
37 39 39 40 41 42 44 45 44 39 45 41 37 37 37 38 38 40 40 39 37 36 35 33 37 37 33 34 35 35 34 34
30 30 35 39 40 43 44 45 46 52 46 43 43 41 41 40 40 41 45 45 44 43 42 41 38 37 34 34 43 39 38 38
31 30 32 34 37 39 43 44 48 48 49 46 46 45 44 44 44 44 45 45 47 48 47 46 44 42 43 41 36 32 41 39
29 26 31 35 35 37 40 40 44 46 47 47 47 48 48 48 47 47 47 47 48 48 49 49 51 49 46 46 44 41 37 41
24 24 28 28 29 34 37 41 43 44 45 46 47 48 51 51 51 51 52 52 51 50 50 50 50 51 50 46 48 48 47 45
29 29 28 32 30 33 34 37 38 42 46 47 47 48 56 52 53 55 56 56 56 56 56 55 53 53 54 52 50 51 52 52
33 32 31 25 23 30 36 41 39 40 41 43 46 49 55 53 54 55 56 59 60 60 61 60 59 58 57 57 56 54 54 53
27 28 29 29 29 30 32 35 39 42 45 45 46 47 50 50 52 55 58 59 61 62 64 65 65 64 63 62 60 60 59 59
21 23 27 28 27 27 28 31 37 39 44 47 49 50 52 54 54 56 56 58 59 63 66 67 70 71 70 69 67 65 64 64
14 16 19 20 20 22 24 26 28 30 34 39 43 45 48 51 54 56 57 57 60 63 66 68 71 73 75 75 74 72 71 68
17 17 17 16 16 17 19 21 23 24 24 28 31 35 39 45 48 51 55 59 62 65 67 69 72 74 77 79 80 79 77 77
23 25 26 26 25 25 24 24 26 29 28 28 28 31 35 37 40 42 48 55 56 58 63 67 69 72 78 80 82 85 85 83
29 29 30 29 28 29 31 30 29 29 32 33 32 30 31 33 37 39 40 42 50 55 56 60 64 67 70 75 82 86 88 89

GFSFLT2_500_spd_075.txt.gz
Wind_Speed
45 37 32 33 39 29 18 20 21 27 40 46 44 42 29 30 25 19 18 20 19 17 17 21 23 23 23 23 22 24 26 23
42 47 47 42 34 34 29 25 28 30 34 36 41 36 36 32 32 31 29 25 31 24 20 21 24 26 26 26 26 26 28 27
46 47 41 44 40 36 28 23 26 24 32 46 37 33 36 37 32 30 29 29 26 24 25 24 26 29 29 29 29 29 28 30
38 41 48 48 32 35 35 34 26 32 35 42 36 32 32 38 37 34 30 28 26 27 25 28 26 25 26 31 30 30 30 31
36 44 45 45 46 44 31 26 31 30 37 31 38 35 34 37 38 36 37 33 29 26 31 36 33 29 27 29 32 32 30 29
24 21 34 44 46 46 44 32 28 33 40 31 37 35 37 37 39 39 38 38 36 35 35 32 26 36 24 26 28 27 26 26
37 39 34 30 48 47 46 41 25 37 43 49 41 40 35 39 41 41 39 40 38 37 35 31 26 21 31 27 29 30 28 28
41 43 47 46 47 51 49 46 43 27 46 50 48 44 38 39 41 42 44 44 42 40 39 36 37 32 29 24 32 34 32 30
18 34 47 49 52 43 44 46 42 37 58 47 42 43 41 40 41 43 45 47 48 47 45 43 41 40 38 36 41 34 33 37
22 28 28 32 42 46 40 47 44 52 56 53 51 47 43 44 44 44 44 46 48 49 49 49 48 47 46 44 44 45 34 32
29 27 22 32 32 33 36 43 39 44 48 49 48 49 49 50 48 48 47 49 49 49 50 52 53 51 50 49 48 45 43 39
28 30 25 31 29 29 32 40 38 44 45 46 46 47 56 50 51 50 50 50 51 51 52 52 52 53 54 54 54 52 50 48
28 29 31 31 24 25 29 37 34 38 41 44 49 52 52 50 52 54 55 55 55 56 56 56 55 55 56 56 55 54 53 52
35 37 38 34 31 33 32 32 36 35 37 38 39 41 48 52 50 52 55 58 59 60 61 61 61 61 60 59 58 56 56 56
33 40 41 41 37 37 36 34 34 36 37 40 41 42 44 47 46 46 50 55 59 60 62 64 66 66 65 65 64 62 61 59
24 28 31 35 36 38 39 38 36 37 39 41 41 42 44 48 49 49 49 50 52 55 58 62 65 67 69 70 71 70 68 66
24 23 25 29 32 33 34 34 35 35 35 35 37 39 43 47 49 51 53 52 54 56 57 59 62 64 68 70 73 73 74 73
27 30 28 27 27 28 28 28 29 30 30 31 32 33 34 38 41 44 49 52 52 53 55 57 60 63 66 68 70 73 75 76
31 35 34 34 32 33 34 33 32 33 33 34 35 36 37 37 39 41 42 46 47 44 45 51 56 63 65 67 71 73 74 76

GFSFLT2_500_spd_078.txt.gz
Wind_Speed
36 36 38 27 36 30 18 12 14 23 35 45 48 41 35 28 24 32 22 30 31 26 21 22 16 18 20 21 22 23 22 20
28 39 42 40 32 34 34 35 26 28 34 44 44 37 36 37 28 25 27 32 30 31 19 23 20 19 20 23 22 24 25 23
27 43 46 46 34 48 36 24 20 25 41 41 48 44 36 34 34 32 31 30 30 35 30 23 22 20 24 26 26 25 25 25
20 36 43 45 38 36 41 34 29 36 40 43 47 36 30 34 32 36 35 34 30 34 16 27 24 23 32 29 29 28 26 26
15 21 41 52 53 40 34 31 39 34 40 29 32 37 27 24 32 34 37 34 27 25 24 27 29 32 29 30 30 31 24 24
30 27 23 41 47 47 46 39 24 38 41 40 31 25 29 28 28 34 38 37 34 31 28 30 28 27 23 27 30 24 31 26
30 30 32 27 38 45 50 48 31 34 45 37 29 30 27 29 30 37 39 39 39 39 37 35 34 35 26 35 33 27 22 28
51 33 35 35 23 33 44 48 23 45 39 42 47 38 36 36 32 38 42 43 43 42 42 40 40 36 32 34 24 27 27 26
47 40 40 45 48 46 50 47 32 30 36 55 42 48 43 41 39 37 45 46 46 44 44 44 44 43 41 38 33 27 30 24
13 23 54 45 47 54 55 27 36 49 34 42 53 47 44 42 48 44 43 49 49 49 48 48 47 46 43 40 43 37 32 26
26 23 20 35 47 50 40 33 44 52 57 57 54 53 52 45 46 46 46 44 48 50 51 50 51 50 46 44 44 43 41 39
31 32 26 30 27 33 46 52 50 43 49 58 61 54 53 56 54 50 47 47 49 49 50 50 51 51 50 49 49 49 47 44
26 29 28 28 28 32 32 35 36 45 53 52 58 55 61 57 52 55 54 53 53 53 53 52 52 52 52 51 51 51 53 52
26 26 28 39 42 35 34 32 32 32 35 45 46 43 51 58 52 50 53 55 55 55 55 55 55 55 55 55 54 53 53 53
29 34 37 40 38 35 33 33 34 35 35 37 38 38 44 46 48 50 51 52 54 55 57 59 59 58 58 58 57 56 55 55
26 28 34 42 44 40 40 41 40 42 38 38 35 34 39 44 45 46 46 48 51 53 57 58 60 62 63 63 63 62 61 61
29 30 31 31 36 35 38 41 39 40 41 41 41 38 38 41 42 41 43 44 46 49 52 55 57 59 63 64 65 66 66 66
30 34 35 34 33 32 33 35 37 38 39 38 39 39 39 40 40 41 43 44 45 47 49 51 54 57 58 60 61 64 67 69
28 29 37 39 37 34 30 31 33 34 35 35 33 34 36 38 37 36 36 36 39 41 44 47 51 54 57 59 61 63 65 68

GFSFLT2_500_spd_084.txt.gz
Wind_Speed
43 42 39 43 53 43 32 30 22 28 26 28 26 22 18 16 9 5 11 13 16 18 21 20 19 22 24 26 21 20 21 21
42 42 40 37 49 43 37 36 34 29 33 31 24 22 21 16 9 9 15 16 19 22 19 20 23 22 26 24 21 22 24 25
42 43 35 38 47 47 44 39 33 40 35 35 31 26 20 20 21 20 17 16 20 22 28 35 28 25 31 24 21 20 22 23
42 39 32 35 44 47 46 39 41 44 48 33 28 24 24 21 20 22 22 21 22 23 23 26 19 29 32 27 24 24 24 25
36 33 34 41 48 53 54 48 46 46 44 43 31 22 27 28 27 24 25 25 23 21 21 21 18 18 27 34 33 30 27 28
41 41 41 48 49 58 57 53 51 49 48 42 39 34 28 25 28 28 28 26 26 25 25 24 23 20 20 27 29 28 29 32
40 48 42 47 50 49 55 55 57 53 49 48 40 38 34 26 22 23 27 28 26 24 25 24 24 24 20 20 28 28 32 37
50 43 50 49 54 51 44 52 49 53 55 51 48 39 38 32 29 26 23 29 30 27 25 28 26 29 28 26 33 22 26 35
43 47 37 38 45 45 50 48 54 44 48 58 54 42 31 27 19 28 25 25 29 30 28 27 30 30 32 30 32 29 27 21
34 45 40 40 37 37 37 46 51 56 54 55 60 55 47 35 25 30 30 27 29 30 28 26 28 31 31 32 32 30 25 25
34 38 40 40 39 41 41 40 43 46 51 56 54 53 50 47 47 45 41 36 37 35 35 33 30 31 32 33 35 35 30 30
30 36 40 37 42 51 29 43 55 52 53 54 58 60 58 52 41 34 35 43 45 39 38 39 38 34 33 34 36 39 38 35
23 25 31 35 35 43 49 40 41 44 47 44 42 43 46 54 50 47 45 42 41 40 41 41 42 42 41 40 40 40 41 40
19 23 27 27 32 37 33 36 44 49 44 43 44 45 48 50 49 45 45 48 48 43 43 43 43 44 43 41 41 43 43 43
16 20 24 27 29 32 39 40 39 39 46 59 56 51 49 49 49 52 56 55 49 43 44 47 48 49 50 50 48 46 45 46
17 18 22 26 29 32 32 33 37 43 45 40 43 47 53 56 60 61 60 60 60 62 63 64 61 59 60 59 58 56 54 52
16 21 23 25 28 31 32 34 37 41 42 47 49 44 43 44 43 43 46 48 52 58 63 66 64 61 60 59 59 59 57 56
23 24 28 29 30 31 33 36 37 40 44 46 47 47 47 46 45 44 43 41 41 44 43 45 51 53 54 54 54 54 53 54
28 30 32 30 33 35 34 33 37 41 41 39 42 45 48 49 49 48 46 44 44 45 43 42 43 44 45 45 45 47 47 46

GFSFLT2_500_spd_087.txt.gz
Wind_Speed
39 40 43 43 47 45 42 41 37 36 32 29 29 25 20 16 10 5 10 19 19 17 18 25 21 22 21 21 22 23 23 22
41 41 42 45 47 48 47 39 43 39 33 28 31 24 20 17 19 12 12 20 15 19 19 22 22 25 24 23 23 21 23 24
40 41 41 46 48 50 47 49 41 39 33 28 28 25 22 22 19 18 19 20 22 23 21 21 27 23 21 25 19 23 24 26
41 41 40 39 49 52 50 48 46 42 41 33 29 30 24 19 21 25 22 21 22 21 20 22 25 30 18 26 23 34 26 26
38 38 33 38 46 49 55 53 53 48 44 42 40 30 28 26 25 29 29 27 22 20 22 23 18 22 32 24 23 33 32 27
39 38 40 39 43 48 54 57 55 51 49 48 45 40 29 24 28 31 29 27 25 26 23 23 22 22 18 20 20 24 30 27
35 43 40 41 42 47 51 56 57 53 52 50 49 41 39 34 32 35 33 31 30 27 25 23 23 23 22 20 25 19 25 33
39 36 45 43 42 46 48 54 56 55 54 53 48 40 39 37 36 29 23 23 30 35 30 25 22 24 25 26 25 24 23 22
35 43 43 46 47 45 48 52 55 55 55 54 50 44 44 43 38 34 35 31 30 27 28 26 22 22 25 26 28 29 25 25
32 39 47 44 45 51 54 56 55 54 54 56 55 53 53 50 42 35 26 28 32 33 28 27 27 28 27 27 28 29 29 27
29 33 40 46 45 39 48 52 52 46 48 49 51 48 52 53 49 43 33 29 27 27 26 27 26 27 28 26 26 27 29 29
27 30 30 38 37 35 44 35 38 47 49 49 50 55 49 44 41 36 41 39 41 41 40 40 33 32 33 31 31 30 27 27
25 32 35 37 39 38 38 38 38 42 44 46 50 47 48 48 46 41 36 36 38 38 38 39 41 42 44 42 39 37 38 37
17 24 27 27 33 36 33 33 38 45 50 44 44 50 51 48 44 42 41 42 44 43 42 41 40 41 42 42 42 40 38 37
13 16 18 21 23 27 31 30 31 39 48 48 49 46 41 41 52 51 48 45 47 48 48 48 47 48 45 46 46 45 43 39
13 13 16 19 22 23 25 30 32 36 39 41 40 42 49 54 51 46 46 46 47 49 49 50 50 49 51 52 49 50 47 45
14 15 15 16 20 24 27 29 33 35 38 42 46 47 48 47 44 50 55 55 53 55 54 54 55 56 57 58 57 55 56 57
17 19 20 23 25 24 24 28 33 37 39 43 43 46 47 48 53 49 46 49 51 50 52 56 60 63 61 61 63 63 63 63
21 24 25 27 31 33 31 28 29 34 39 41 43 45 47 50 51 50 55 52 49 49 48 49 51 51 50 50 50 51 53 54

GFSFLT2_500_spd_093.txt.gz
Wind_Speed
41 41 40 41 43 40 40 37 35 36 29 27 24 23 20 16 19 19 21 20 22 21 17 20 18 15 13 15 15 15 15 15
39 41 43 40 39 41 43 41 37 36 34 27 24 24 22 18 20 22 21 25 26 27 25 24 20 21 19 17 16 16 14 16
38 40 41 43 42 41 43 41 37 36 32 23 22 24 22 24 21 21 20 20 26 30 34 26 24 25 21 24 19 16 18 17
41 39 37 40 42 41 41 43 40 37 33 25 23 23 23 24 22 25 24 22 25 26 29 28 29 28 23 24 21 19 19 25
38 38 36 38 41 43 42 41 40 37 33 30 22 24 24 21 27 25 27 29 26 28 34 27 34 29 26 23 30 25 22 25
35 40 39 39 39 41 42 40 41 38 36 32 27 25 25 24 23 24 27 25 22 25 20 20 19 21 23 29 26 24 28 30
34 36 37 37 36 37 40 41 40 40 38 36 34 30 28 29 26 24 26 25 22 23 25 25 26 24 25 27 28 34 34 33
29 33 36 37 36 37 37 36 37 39 39 38 39 36 34 31 33 33 31 27 24 23 28 29 29 27 26 23 28 33 20 28
42 30 34 36 38 39 39 37 36 35 35 36 40 40 40 39 36 36 35 34 31 28 27 30 31 32 29 26 27 24 24 20
28 36 33 34 37 34 36 37 36 36 34 32 33 38 39 41 43 40 37 34 32 33 33 34 29 27 25 20 24 25 23 22
22 24 30 38 35 33 35 34 34 35 36 36 35 33 34 35 37 39 40 39 36 34 35 35 33 30 30 31 22 25 26 21
21 19 18 27 32 37 36 36 36 41 41 39 39 37 38 39 38 37 36 37 39 40 37 30 30 34 35 35 32 30 28 23
25 25 28 30 28 29 31 36 37 34 35 38 44 41 41 42 41 41 39 36 37 39 44 44 42 38 32 34 35 32 30 26
20 20 22 23 26 28 29 30 31 35 36 36 37 37 40 43 43 45 44 41 40 41 38 43 43 43 44 44 40 38 34 37
11 12 13 16 19 20 22 26 26 26 29 33 36 37 37 38 37 38 39 43 44 44 42 43 43 45 44 46 46 47 49 48
8 10 11 13 14 15 18 20 21 23 24 27 35 37 39 39 41 42 42 43 42 43 46 44 46 48 51 52 52 47 47 46
7 8 8 9 10 11 13 15 18 20 22 25 29 33 35 38 41 42 44 47 47 46 45 46 48 50 53 54 53 51 47 48
11 9 11 12 13 13 14 15 15 15 16 18 22 27 31 35 39 42 43 45 45 43 46 47 50 50 49 52 54 55 54 53
12 14 15 15 17 18 21 24 25 24 24 24 25 26 29 33 35 37 38 41 42 42 46 56 56 58 57 54 57 57 58 55

GFSFLT2_500_spd_096.txt.gz
Wind_Speed
43 40 41 41 43 37 30 24 21 26 29 20 22 20 16 12 12 15 19 18 19 22 21 24 23 27 19 19 15 12 14 14
40 42 41 42 40 39 40 26 23 20 23 21 26 23 21 15 15 19 21 21 22 24 27 29 26 29 25 20 19 15 13 15
39 41 42 42 38 42 31 30 22 22 18 30 26 24 24 21 20 24 26 27 28 29 30 30 29 26 22 21 21 19 14 15
41 40 40 42 39 38 36 29 32 22 22 26 26 23 26 26 25 23 29 26 23 26 33 33 34 31 30 22 29 27 16 16
34 41 38 37 38 39 29 27 28 28 23 27 21 24 24 27 24 28 23 23 23 24 25 27 26 36 32 27 22 17 20 22
25 31 30 41 38 38 39 27 24 25 24 29 25 21 25 27 22 27 28 25 24 30 28 27 28 29 33 29 25 26 34 24
34 29 36 36 35 35 35 29 24 22 27 32 31 24 25 27 27 22 23 27 26 28 27 23 22 25 26 21 31 25 20 23
30 34 33 32 31 32 34 35 35 35 30 28 30 29 27 28 29 28 26 25 23 22 23 20 20 22 22 25 25 21 20 26
32 32 30 30 34 34 35 33 33 29 36 35 33 30 30 31 30 31 32 31 28 26 22 19 23 27 28 28 29 27 26 23
26 35 33 32 34 35 36 35 36 35 34 32 31 31 31 32 33 33 34 35 36 35 32 30 29 28 28 28 25 26 28 25
21 25 34 30 37 34 33 37 37 36 35 35 33 32 32 30 32 35 36 36 37 36 36 36 35 36 33 30 26 25 22 21
16 20 20 30 36 33 30 35 36 35 35 35 35 33 38 37 36 37 37 36 35 37 38 38 36 37 38 37 34 30 28 27
20 20 25 22 25 30 30 36 35 35 36 37 38 38 37 39 40 40 39 38 37 36 37 39 40 39 37 35 36 35 35 33
22 24 25 21 22 26 29 29 29 32 37 39 38 36 39 41 41 42 43 41 41 40 40 40 42 44 44 42 38 36 34 34
21 22 21 23 24 24 27 33 34 32 32 33 36 39 40 38 38 40 42 41 41 42 40 40 42 46 47 47 46 47 47 44
14 15 14 15 16 17 18 19 22 24 26 27 28 32 36 38 38 39 40 41 40 38 37 41 41 41 42 47 48 45 44 44
11 12 12 11 11 11 13 16 19 23 25 26 27 29 31 35 37 39 41 42 42 42 40 40 40 39 40 43 43 44 46 51
13 12 14 13 13 13 13 12 13 15 18 22 25 28 30 32 34 37 39 40 41 43 41 40 40 42 42 42 45 50 52 55
13 13 14 15 17 17 17 18 19 20 21 23 25 27 28 28 30 34 36 39 42 43 44 44 42 42 43 45 49 51 53 58

GFSFLT2_500_spd_102.txt.gz
Wind_Speed
27 31 29 21 29 24 17 10 5 16 6 8 9 13 26 24 29 28 37 27 27 24 30 24 20 13 10 12 12 15 14 14
25 29 35 32 10 26 30 17 10 12 17 2 3 5 2 5 7 6 21 18 28 25 25 18 23 17 10 10 12 14 12 13
25 28 30 33 30 20 26 23 22 14 17 6 7 11 10 15 11 9 14 10 14 23 31 19 20 21 15 13 20 15 14 15
22 19 24 24 20 18 20 29 22 18 21 26 24 20 16 16 19 20 15 17 13 18 25 18 23 17 18 20 18 20 18 19
10 16 15 24 25 21 18 22 25 21 30 35 32 17 17 19 20 23 26 24 23 18 14 16 13 19 16 20 24 26 22 20
19 23 20 20 24 20 21 18 18 15 28 32 31 21 12 17 24 25 24 23 25 19 21 19 17 17 16 17 20 29 31 26
22 22 31 20 17 24 18 22 13 21 26 30 27 30 28 22 23 29 26 26 28 27 24 19 20 21 20 20 21 23 21 19
43 18 26 23 17 20 18 21 19 28 34 35 15 33 26 27 23 28 28 27 29 30 31 26 21 18 18 17 19 19 15 14
40 23 18 12 28 24 24 33 27 33 26 24 42 28 15 16 23 26 28 30 29 29 31 28 26 24 23 20 18 17 14 14
39 27 27 28 31 31 31 20 29 34 35 28 29 37 34 20 28 31 30 33 30 26 26 24 23 22 21 22 22 20 18 16
36 46 37 34 35 29 33 38 29 32 49 49 30 10 17 25 32 34 34 33 32 31 30 28 27 28 28 27 26 24 21 19
29 18 17 28 30 32 35 42 38 22 56 59 52 24 36 29 32 30 31 35 38 37 36 35 34 34 34 34 33 31 29 28
26 20 33 33 46 36 39 36 18 26 31 45 48 50 50 40 37 33 32 33 34 36 39 41 42 42 43 43 42 41 38 36
16 14 16 16 8 20 39 46 33 34 38 39 37 41 43 41 41 38 34 34 35 35 35 37 38 40 43 45 45 45 44 42
23 26 21 19 11 17 19 18 30 34 33 32 30 34 38 37 38 39 39 37 37 39 40 41 41 40 40 41 41 42 42 43
16 26 28 20 12 17 20 23 22 23 26 29 29 31 33 35 37 39 40 40 40 42 43 44 43 43 43 44 46 45 45 45
12 18 17 20 20 19 21 24 25 26 27 27 27 27 29 31 32 33 34 36 39 42 43 43 42 43 44 45 45 45 46 47
16 16 15 20 17 17 19 20 19 20 22 23 24 25 27 28 29 29 30 33 34 37 39 42 45 47 47 47 46 46 46 47
17 15 15 16 13 17 17 17 17 18 18 19 20 21 22 23 23 25 28 31 34 36 36 39 41 43 45 47 48 48 49 48

GFSFLT2_500_spd_105.txt.gz
Wind_Speed
16 21 26 23 24 18 25 6 8 5 9 3 7 4 5 8 16 35 34 33 31 27 25 25 18 19 17 16 17 15 13 13
15 13 19 24 16 21 22 18 20 17 4 7 14 9 9 9 5 25 36 36 32 27 28 25 37 19 17 17 17 15 14 15
24 24 20 31 25 21 22 23 20 17 18 11 6 10 15 13 13 4 26 29 28 25 24 22 28 22 20 14 15 13 14 13
23 18 21 20 31 21 18 19 24 23 23 13 5 9 6 15 15 15 14 23 23 25 23 32 30 28 23 16 13 18 15 14
28 24 11 9 26 35 28 25 25 23 26 19 12 11 7 8 12 16 15 19 16 16 19 24 15 17 16 17 15 14 16 14
29 21 21 21 17 27 30 33 29 25 23 21 19 14 9 11 14 27 28 26 18 11 12 20 15 16 9 12 14 14 16 14
26 17 17 25 18 24 25 26 19 21 22 26 27 24 17 20 15 13 22 23 20 16 14 16 21 7 13 12 12 13 15 13
47 33 21 21 21 26 25 25 18 22 22 24 24 16 23 24 29 26 21 26 24 22 17 16 16 14 15 16 12 10 11 11
35 45 28 33 28 25 21 28 18 27 24 26 27 26 29 32 31 26 25 25 26 25 23 21 17 20 17 16 14 14 14 12
31 39 32 33 29 25 27 31 30 31 32 33 29 26 34 26 17 24 22 20 23 25 24 24 24 25 23 24 21 21 19 16
22 40 41 37 34 30 35 31 34 40 45 39 35 28 30 38 22 24 23 25 26 29 27 23 24 27 24 24 23 23 21 20
25 37 44 37 37 30 36 33 26 29 22 29 39 46 42 18 31 36 30 27 28 28 30 32 32 34 32 30 30 28 26 25
25 34 38 31 32 34 35 40 35 29 27 23 26 28 40 40 30 27 26 26 26 28 31 33 36 37 38 38 38 35 34 32
18 28 21 28 22 38 34 37 40 39 37 44 50 25 18 19 27 29 31 37 35 32 33 34 36 37 40 41 40 41 41 40
10 11 10 2 17 18 28 26 34 39 50 19 31 19 21 25 33 41 36 38 39 37 36 37 38 39 40 42 41 41 41 41
16 18 15 11 14 10 7 10 24 34 40 44 44 36 29 28 31 37 34 36 40 41 41 42 43 43 44 44 43 44 44 44
10 14 12 11 12 13 14 15 15 20 26 32 31 27 24 24 24 27 31 35 39 41 41 42 43 45 46 46 46 47 47 47
8 9 7 9 10 11 14 14 17 23 24 27 31 32 30 30 28 27 29 31 33 35 37 39 41 44 46 48 49 49 48 48
14 12 12 11 7 10 13 14 16 19 23 26 26 26 24 23 23 25 25 27 29 31 33 36 38 39 40 41 43 45 47 50

GFSFLT2_500_spd_108.txt.gz
Wind_Speed
21 16 23 19 15 15 15 5 2 3 18 23 16 24 15 15 22 23 32 33 31 29 30 26 27 25 23 21 20 18 17 16
34 19 16 22 19 22 22 19 16 11 1 1 9 14 13 13 14 20 33 37 36 30 33 24 24 27 26 22 22 18 19 18
25 27 21 21 22 18 17 13 18 17 20 14 2 8 0 16 10 24 38 38 33 32 30 28 24 26 22 22 23 23 19 18
24 20 21 19 21 18 17 12 16 16 16 6 2 3 9 11 16 18 32 34 35 32 28 27 35 32 27 25 20 18 18 16
28 21 21 23 30 27 25 21 16 18 18 17 11 4 4 9 12 17 17 33 30 31 27 24 24 24 38 25 22 17 20 16
30 31 29 26 31 37 30 25 23 20 20 21 24 12 8 10 13 16 15 13 24 19 29 28 22 20 29 27 30 20 20 17
34 34 27 27 31 33 37 34 32 25 26 26 25 28 22 14 16 15 18 16 17 19 21 19 18 21 26 28 26 28 19 13
32 37 33 31 33 37 39 37 35 32 29 27 30 25 26 26 11 15 19 26 19 15 14 17 16 27 32 20 22 21 17 14
42 35 19 20 35 32 32 28 33 33 31 29 30 23 21 17 14 15 18 20 23 24 25 16 28 33 27 28 18 18 16 15
35 31 37 21 22 25 28 23 32 33 33 31 31 32 25 24 26 26 26 25 28 27 31 35 27 20 21 13 16 15 14 15
27 34 32 41 34 28 28 29 34 38 30 32 36 32 31 29 25 23 27 28 31 33 29 29 26 18 21 20 21 23 22 20
28 32 37 36 41 35 29 34 32 28 31 36 33 36 33 28 21 26 31 30 32 29 27 26 25 23 22 19 22 26 22 22
19 25 35 45 40 39 31 34 34 36 36 38 31 34 42 40 33 35 34 32 29 27 28 27 26 26 26 25 28 29 29 27
21 24 29 40 44 40 43 35 45 39 36 39 39 26 44 46 38 36 44 39 30 25 25 27 28 30 31 32 32 33 34 34
6 9 17 24 23 34 29 28 35 37 33 29 40 30 32 33 24 19 17 25 25 25 24 29 33 33 35 37 38 40 42 43
4 5 6 11 8 8 10 22 35 39 39 42 45 41 38 35 21 19 16 25 36 36 37 39 43 42 39 40 41 43 45 44
5 7 12 15 14 15 13 10 11 22 23 20 21 20 17 14 11 15 21 24 32 39 42 38 39 42 42 43 45 47 48 49
4 5 9 9 9 14 18 18 19 19 19 20 23 19 19 16 20 22 25 26 27 29 33 37 41 44 44 45 46 48 50 51
3 2 3 2 4 9 11 13 15 17 20 22 25 25 20 16 17 18 21 23 26 31 35 37 40 40 42 43 44 46 48 50

GFSFLT2_500_spd_111.txt.gz
Wind_Speed
29 23 22 16 19 23 24 25 13 7 6 17 10 8 27 41 40 32 30 24 30 30 31 29 24 23 22 21 20 19 17 16
34 27 27 20 14 18 17 16 16 10 10 4 7 10 29 37 34 30 35 33 36 32 28 27 26 27 25 24 22 20 19 19
28 28 23 27 28 25 20 16 24 16 9 18 12 6 3 16 31 29 28 34 34 33 25 25 29 30 28 27 26 26 24 24
36 27 25 19 22 23 22 17 17 18 10 14 4 4 9 11 16 23 29 33 35 30 34 30 30 28 29 29 29 28 28 25
39 39 32 26 24 25 20 19 19 22 15 16 14 6 1 5 12 10 17 32 39 39 41 33 36 32 26 29 26 26 28 25
37 34 34 33 27 28 25 23 21 22 17 15 14 16 11 9 6 7 6 24 36 40 34 38 35 31 32 37 29 30 29 30
41 36 33 36 30 31 31 28 25 19 17 14 13 17 15 16 9 9 9 14 21 35 35 32 35 30 29 31 30 38 30 24
38 37 44 40 30 25 29 32 31 27 24 20 19 17 16 17 20 12 9 15 11 15 25 43 42 33 34 29 33 43 33 28
38 44 42 42 31 25 25 34 36 36 33 28 24 23 25 20 17 18 15 14 15 17 22 23 23 28 27 35 37 40 39 41
24 40 42 41 31 28 27 27 37 38 37 34 34 26 25 25 24 20 18 18 17 15 17 12 18 25 32 35 39 42 33 32
23 36 44 35 38 32 30 28 21 32 34 32 32 29 26 27 29 27 24 24 22 23 18 16 20 22 25 34 38 42 34 28
27 26 37 42 34 24 29 29 32 30 33 31 29 26 28 29 28 29 25 25 26 25 24 27 26 21 19 18 23 18 29 26
22 27 31 35 36 34 35 31 31 33 31 36 36 32 32 32 31 31 29 27 30 29 27 26 26 29 25 24 26 21 19 18
11 23 28 32 35 35 31 36 33 39 37 35 34 32 33 34 38 35 34 33 30 33 32 31 28 25 23 21 23 22 21 18
5 14 21 21 26 27 33 36 37 31 38 38 39 37 35 38 40 27 30 33 36 41 32 30 25 20 19 21 24 26 28 29
5 6 13 14 15 16 18 32 37 40 37 34 46 38 41 26 34 45 25 24 20 38 46 32 28 29 27 28 31 33 35 37
3 9 9 10 6 8 6 11 23 28 32 30 33 33 32 31 19 14 7 4 12 13 27 33 38 37 36 34 36 36 37 40
4 6 9 7 7 7 10 13 15 17 19 22 24 22 18 19 17 11 10 16 16 17 27 34 39 45 46 45 42 42 43 44
2 3 2 2 5 8 9 12 13 12 14 17 18 17 16 15 15 18 18 19 24 28 30 32 34 35 37 38 40 41 43 47

GFSFLT2_500_spd_114.txt.gz
Wind_Speed
23 26 25 24 21 22 22 21 21 12 10 8 20 13 23 30 32 34 31 30 25 30 26 28 24 23 21 19 18 18 15 14
29 28 28 25 21 23 19 18 21 23 13 8 15 13 16 27 26 34 36 31 27 33 29 28 27 27 24 22 21 20 18 18
31 28 29 29 28 23 20 18 15 22 20 15 5 2 5 15 30 33 35 35 26 30 33 30 29 32 28 26 24 23 22 21
28 30 30 27 29 28 24 18 16 21 14 8 11 7 6 2 12 33 33 34 33 39 29 35 33 36 31 29 29 27 25 23
34 36 34 29 29 31 30 24 21 20 14 11 8 11 9 5 6 12 29 34 27 39 33 41 35 35 32 31 32 30 27 25
40 36 34 31 30 27 29 27 22 22 20 18 13 10 9 6 4 9 12 21 30 34 44 32 25 31 31 30 27 29 29 27
39 38 40 28 34 32 28 28 25 21 20 19 18 17 16 14 9 9 3 1 18 27 43 39 42 37 32 30 26 28 30 27
36 49 45 35 38 35 29 28 28 26 20 19 17 25 18 21 18 15 11 4 4 27 40 40 40 31 28 34 35 33 35 32
47 48 52 47 42 39 33 25 31 29 25 22 19 18 19 22 20 15 14 9 6 9 9 17 22 35 39 41 36 39 32 38
32 36 39 40 44 40 35 27 29 31 29 30 23 21 21 22 21 14 15 15 11 11 8 12 6 21 26 43 39 37 39 34
15 35 42 37 35 42 38 34 27 27 31 36 32 28 26 22 19 19 19 17 16 17 11 10 13 16 19 25 40 42 34 34
20 21 31 37 42 41 39 35 30 29 30 32 33 27 24 24 24 22 23 23 22 21 20 21 22 20 21 21 21 32 34 41
15 20 21 23 31 38 45 26 30 26 24 28 23 23 21 23 27 25 28 26 24 23 23 24 25 26 25 23 14 15 24 24
10 16 22 22 21 21 26 25 29 26 25 23 23 26 26 29 30 25 25 25 25 25 25 22 26 27 26 27 27 33 32 27
7 13 13 20 14 15 23 26 28 31 35 32 28 27 26 29 28 26 28 29 28 30 28 30 25 29 26 24 24 24 23 30
5 3 10 13 15 19 22 24 28 32 33 34 33 28 31 32 32 32 24 24 34 28 26 24 30 33 34 32 29 22 24 27
3 5 3 7 11 10 11 17 23 26 30 32 31 32 27 29 30 30 22 27 17 21 14 15 25 31 37 38 33 33 34 34
2 7 6 5 6 12 7 7 9 16 20 23 27 28 27 23 18 13 17 18 16 15 14 19 25 30 36 42 39 43 41 41
2 3 6 8 9 9 8 9 9 9 9 10 15 13 15 17 18 18 19 17 20 22 21 23 26 28 32 37 42 42 44 44

GFSFLT2_500_spd_117.txt.gz
Wind_Speed
20 19 22 19 19 18 20 20 19 16 13 6 11 18 21 29 32 34 35 28 25 30 30 29 28 27 25 24 21 19 17 16
21 21 23 21 20 22 22 23 20 17 13 8 8 15 19 19 30 29 30 33 28 29 26 27 28 30 28 25 24 22 19 18
25 25 26 24 23 22 23 25 21 17 11 13 7 4 11 18 24 28 36 37 32 29 22 28 29 31 31 29 26 24 22 21
27 30 31 29 26 26 28 23 20 18 11 13 10 9 7 9 18 28 33 41 38 35 28 29 29 32 33 31 29 27 25 23
31 32 32 34 33 30 29 26 19 21 15 6 14 8 7 5 10 28 42 45 45 37 34 32 35 32 35 34 33 32 29 27
36 34 35 38 36 33 33 29 28 25 21 12 16 9 4 6 1 3 8 15 38 47 35 38 38 35 34 36 36 35 30 29
38 41 41 40 37 36 33 28 26 27 26 16 14 13 11 10 8 3 8 4 18 31 36 43 36 29 32 35 36 34 31 30
28 38 42 45 39 37 38 31 25 25 26 21 13 19 13 15 14 10 9 16 5 25 33 31 39 32 31 31 29 30 31 29
23 31 46 45 45 41 39 31 28 26 27 26 21 15 15 16 14 13 8 7 6 8 22 25 32 35 26 40 34 35 34 30
21 27 38 41 40 39 28 30 30 30 25 29 24 19 15 14 16 14 7 11 11 8 7 9 33 39 27 40 37 34 35 30
18 15 20 34 34 39 36 33 36 35 29 21 26 24 19 16 16 17 12 13 14 12 12 2 6 10 25 31 34 31 37 38
10 14 16 24 34 35 36 43 37 37 33 21 21 24 21 20 20 17 15 17 17 12 10 11 13 17 17 18 26 26 26 29
8 11 18 16 27 31 28 32 38 33 35 23 21 18 17 22 23 19 20 21 20 20 19 16 19 24 20 19 21 18 18 24
4 7 13 16 18 20 20 28 33 31 26 26 22 19 17 19 18 20 22 26 23 21 24 25 20 17 19 22 26 26 24 22
5 8 12 12 15 13 15 22 31 28 24 21 16 10 13 14 14 17 20 15 15 17 22 25 27 23 20 21 24 27 29 28
6 5 4 8 13 15 16 17 23 32 29 25 21 22 21 21 19 20 18 15 18 16 21 21 24 30 25 26 25 27 27 29
4 4 0 4 10 13 15 16 17 18 21 23 26 27 25 25 23 17 16 15 15 12 11 9 9 18 21 26 28 30 31 31
2 2 2 2 2 10 11 9 15 19 21 23 24 26 26 25 26 22 18 18 14 13 12 16 17 20 20 24 30 32 33 34
4 4 5 5 3 7 5 8 8 6 12 16 20 20 21 21 23 18 17 15 15 16 16 19 23 24 27 31 32 31 34 38

GFSFLT2_500_spd_123.txt.gz
Wind_Speed
14 14 17 11 17 15 20 19 17 23 22 20 31 10 17 22 24 26 27 35 28 32 29 28 26 24 24 24 22 21 22 20
15 14 16 18 18 16 14 14 17 16 18 23 34 30 20 18 25 23 29 37 43 35 29 32 31 28 27 26 25 24 21 21
22 15 12 13 18 18 13 22 25 16 22 34 1 32 21 19 23 28 27 40 43 33 35 35 37 33 30 28 28 26 23 22
13 12 13 19 16 18 22 20 21 18 25 35 28 30 21 28 21 33 38 35 40 43 39 38 41 36 33 31 30 29 27 25
13 13 20 20 23 18 20 27 28 23 27 29 25 30 26 26 23 30 31 45 45 43 32 42 40 40 36 35 34 33 30 28
17 17 27 35 27 30 32 27 18 24 23 34 32 24 32 34 34 20 34 37 46 48 52 49 44 42 41 39 38 37 35 32
21 24 26 28 38 39 34 20 28 24 27 34 37 32 23 32 32 15 19 32 38 53 50 50 52 45 43 42 40 38 36 35
23 22 23 29 32 35 31 23 31 36 24 19 42 21 34 23 33 12 13 11 37 38 39 35 44 41 44 42 40 40 37 37
14 14 22 22 22 36 37 35 24 34 40 42 25 20 31 26 23 12 12 14 19 16 37 45 45 48 47 43 41 43 39 34
17 17 25 30 25 40 32 30 46 21 40 43 28 19 24 37 23 18 15 18 13 12 21 40 31 51 57 51 46 47 44 40
14 14 22 21 23 24 27 35 37 39 18 36 26 22 22 32 22 18 19 21 18 20 18 22 21 34 55 56 50 45 44 47
15 19 18 18 23 17 18 24 33 40 30 27 25 24 23 29 29 31 27 26 21 21 17 18 20 22 51 49 46 32 49 54
13 18 11 20 19 11 13 18 19 24 31 29 29 28 24 26 27 30 31 10 9 20 12 5 13 13 28 41 46 48 40 50
16 17 16 13 15 15 14 14 4 24 28 29 24 23 22 20 18 22 32 14 9 5 13 10 7 11 10 19 16 12 22 17
18 13 13 13 16 11 12 16 18 15 21 26 19 18 20 21 19 19 17 18 19 14 17 15 7 10 11 12 9 7 11 14
13 12 16 14 13 12 10 12 12 13 15 16 20 20 17 21 21 21 19 19 17 18 19 13 17 16 17 15 17 18 12 13
13 13 14 13 10 11 13 11 9 15 13 15 18 19 21 24 21 27 24 22 14 14 12 10 14 14 18 19 20 24 24 23
8 8 11 5 9 9 12 14 15 13 13 14 18 22 22 21 29 14 9 11 10 12 13 16 19 14 12 9 13 20 24 27
7 7 8 10 8 9 9 9 8 8 10 12 13 14 14 15 14 14 17 17 15 14 17 14 14 18 18 15 15 17 18 21

GFSFLT2_500_spd_129.txt.gz
Wind_Speed
15 9 12 10 12 12 19 20 16 5 20 23 23 27 27 23 13 13 15 16 22 21 22 20 21 19 17 18 15 16 16 15
12 7 7 13 18 17 18 24 22 14 21 19 24 28 23 23 24 14 20 24 25 25 24 24 27 27 23 23 20 18 19 18
15 8 11 10 17 16 18 23 28 23 22 24 26 28 25 28 28 23 15 24 27 26 28 34 31 30 28 28 25 21 19 20
23 14 9 11 11 19 20 25 26 29 35 32 25 27 29 27 26 30 29 21 19 19 31 34 31 27 31 30 29 27 24 22
24 19 14 11 12 16 20 22 25 30 31 36 33 33 38 32 26 26 26 25 19 23 30 37 47 33 37 33 33 32 28 26
22 26 27 26 26 27 29 28 32 37 36 29 29 29 33 38 27 28 27 23 28 24 33 32 39 39 50 38 35 34 32 32
15 22 33 34 32 31 36 35 37 31 43 41 36 30 36 36 26 25 33 27 27 34 30 34 42 48 54 48 42 42 36 37
17 21 29 34 34 36 34 36 44 38 39 42 44 42 35 40 36 32 26 30 29 28 29 30 36 40 45 42 53 43 43 41
17 23 30 31 33 36 39 42 43 41 33 41 46 44 38 32 34 28 22 20 26 34 36 27 28 35 42 48 48 39 34 37
15 21 24 22 27 30 31 28 33 38 38 39 42 52 53 52 42 33 27 31 32 36 40 37 18 32 40 48 47 47 42 50
20 22 19 22 27 30 26 26 33 33 33 36 39 42 46 40 38 38 47 36 35 43 31 20 36 34 42 39 49 54 30 26
21 20 19 19 28 25 24 24 22 27 33 33 38 34 31 29 26 17 29 45 50 37 39 49 27 18 39 44 48 55 51 34
21 20 21 22 28 22 22 21 27 32 34 36 32 30 38 35 36 32 22 27 36 36 33 28 16 18 24 29 35 46 47 40
21 25 23 20 21 21 18 17 21 24 29 29 30 24 31 32 42 32 26 20 26 27 26 31 16 7 15 28 30 32 27 31
25 22 16 18 21 22 21 23 26 28 23 27 27 38 34 12 19 20 20 14 17 17 30 41 38 32 4 17 31 35 40 38
21 16 18 17 19 31 24 25 27 26 23 23 15 24 23 27 15 18 19 12 9 14 15 19 39 41 30 8 13 27 14 13
20 20 13 18 28 31 25 18 21 16 12 9 10 11 11 16 17 18 17 11 10 13 13 10 12 23 29 9 9 9 12 12
16 17 13 14 24 18 14 18 10 9 13 9 1 7 12 16 17 14 12 12 15 16 19 17 17 19 12 20 9 7 1 3
19 10 10 11 17 18 17 9 1 8 7 5 3 5 11 17 20 19 14 11 3 13 13 12 11 12 5 5 5 8 9 8

GFSFLT2_500_spd_132.txt.gz
Wind_Speed
10 11 10 14 12 20 22 22 19 18 16 16 12 13 14 13 9 9 15 12 6 10 18 29 19 18 20 17 17 18 18 17
9 8 11 12 16 17 18 23 22 20 20 22 20 21 20 16 14 11 10 13 17 16 19 18 23 27 22 21 20 21 21 19
8 5 6 8 13 12 14 19 22 25 26 29 22 22 25 24 18 18 20 19 18 16 22 25 25 34 27 29 24 23 25 25
21 12 11 11 4 12 20 17 23 24 29 35 36 33 28 26 24 24 21 17 16 18 19 28 26 29 33 30 23 26 27 28
25 23 21 17 18 18 21 23 23 29 32 37 38 38 36 37 27 26 28 24 17 15 17 20 22 29 25 28 27 37 32 31
31 30 27 28 26 24 25 26 28 29 31 31 34 38 36 36 32 25 25 25 24 22 22 23 24 27 35 35 33 39 38 35
23 27 31 32 34 32 31 33 33 31 32 34 32 36 32 30 34 28 25 19 22 29 31 29 26 30 28 40 42 43 44 40
25 27 31 30 33 39 36 37 39 41 41 37 35 34 39 48 46 44 37 37 33 28 31 29 24 23 35 34 39 37 47 43
23 26 29 31 34 35 39 41 42 43 44 44 44 42 38 39 44 46 40 33 33 27 28 29 22 26 31 40 38 39 45 46
23 24 27 26 28 30 34 39 41 41 37 36 37 36 34 38 40 43 45 37 29 29 28 24 21 21 29 32 35 38 44 46
22 21 22 22 24 27 34 34 30 30 32 36 35 29 28 20 29 37 43 48 46 41 36 38 33 28 34 32 38 36 42 41
23 22 23 18 24 28 26 27 24 29 34 35 30 28 26 28 29 29 31 40 34 34 27 20 32 38 37 36 33 39 31 42
21 21 19 23 23 22 24 22 20 24 30 34 32 31 31 34 30 29 27 21 20 23 29 28 25 29 34 34 41 31 36 39
24 24 23 20 23 20 21 19 19 23 28 31 33 34 32 27 25 25 34 29 26 22 24 23 19 26 13 17 19 15 22 23
27 24 28 26 21 19 18 19 25 27 32 34 34 30 28 28 17 22 30 20 13 15 17 14 18 21 20 14 18 26 26 26
23 24 26 22 23 20 16 24 24 21 17 13 10 4 13 19 14 15 15 15 13 11 11 14 9 17 26 17 15 25 14 35
23 24 19 21 21 18 16 19 16 16 16 4 4 6 16 19 14 10 12 11 11 11 13 13 8 7 16 25 18 5 9 14
26 22 18 17 17 16 15 12 11 6 8 6 4 1 2 8 16 14 10 10 12 14 15 11 12 10 8 11 8 10 7 2
28 23 22 18 17 13 12 11 10 9 8 3 6 7 7 10 12 13 12 8 10 10 11 12 10 8 8 3 2 2 8 6

GFSFLT2_500_spd_135.txt.gz
Wind_Speed
21 20 14 18 24 24 23 21 22 21 18 17 12 19 18 15 15 13 7 8 8 12 13 23 23 17 19 18 17 18 18 16
15 14 13 15 20 21 25 28 24 26 24 23 20 19 17 17 14 13 13 9 13 14 13 19 27 30 27 17 20 18 19 20
13 15 13 18 20 21 20 22 24 22 26 26 26 22 18 17 12 13 15 15 17 15 13 20 31 29 19 25 24 21 25 24
14 14 11 11 17 21 23 20 20 21 23 24 27 27 28 29 24 18 16 17 13 15 17 19 25 32 28 31 32 29 30 29
23 21 19 17 16 16 18 21 23 25 23 23 28 31 31 31 32 30 27 25 22 20 18 15 16 14 32 33 41 28 32 31
22 23 21 21 22 24 24 23 24 25 26 26 26 28 27 28 31 33 27 27 26 25 24 21 16 18 24 34 44 35 38 39
18 30 28 28 28 30 30 30 30 29 29 29 29 28 25 26 27 31 29 25 23 21 23 24 25 25 24 27 30 39 43 42
24 31 33 33 33 34 36 36 36 36 36 36 35 34 32 28 31 32 36 35 30 30 33 30 29 27 29 28 32 33 34 28
28 28 30 31 29 32 35 36 39 40 41 42 41 40 38 37 37 33 37 37 37 37 37 35 33 25 27 28 32 30 33 34
26 26 28 27 28 30 32 35 37 38 41 43 41 38 35 29 30 27 32 35 37 35 33 34 30 25 21 24 29 30 32 36
24 25 27 25 25 27 31 32 31 29 28 29 31 30 27 29 28 28 30 30 30 34 33 32 31 29 28 30 33 30 32 31
25 24 25 23 26 28 27 26 25 26 27 28 30 30 29 28 28 28 28 31 30 27 31 31 36 38 33 30 31 34 36 39
24 20 19 20 18 23 24 20 22 23 24 27 28 31 30 32 30 30 32 33 33 30 24 28 29 32 29 25 26 28 35 36
25 24 23 20 18 19 22 18 20 22 24 24 30 35 38 35 32 31 29 27 29 29 26 22 17 17 25 26 28 27 28 29
26 28 28 22 21 19 18 18 19 22 27 29 21 25 25 34 34 26 23 21 26 27 19 14 14 13 17 26 31 28 26 22
30 29 28 26 20 18 17 17 17 11 10 13 17 19 19 20 23 22 22 17 21 22 18 17 15 10 12 26 24 23 19 16
30 27 22 15 16 18 16 11 14 14 13 7 10 9 9 8 8 8 8 13 20 21 20 13 11 10 10 11 14 15 9 13
28 23 22 19 17 16 13 8 11 8 10 8 10 6 4 2 9 12 11 12 14 16 16 11 11 11 13 11 7 4 2 3
26 24 29 25 17 15 11 11 9 8 8 5 9 11 8 8 9 11 10 10 12 15 16 18 14 11 11 10 4 6 5 9

GFSFLT2_500_spd_138.txt.gz
Wind_Speed
19 21 24 29 29 28 28 23 20 20 15 17 14 15 17 16 16 11 11 5 5 12 21 22 23 23 20 16 21 21 20 18
23 24 27 23 22 27 28 28 25 23 22 19 17 16 18 17 16 15 13 10 7 8 11 17 21 25 23 26 22 22 21 22
20 21 20 21 22 25 24 26 26 27 25 21 21 21 21 19 18 16 15 15 12 9 13 14 17 22 28 26 28 19 19 23
18 15 15 17 22 22 22 19 18 20 20 22 25 24 24 23 22 22 22 21 15 12 13 13 15 20 25 34 27 26 16 25
20 20 20 18 14 15 19 19 21 19 17 20 21 22 22 21 22 21 22 23 24 20 19 18 16 20 19 30 33 28 32 30
17 17 22 22 21 17 16 16 16 16 16 18 19 21 21 20 21 20 16 20 23 23 23 20 20 18 17 15 27 32 34 38
16 12 16 22 24 25 22 21 20 20 19 20 21 23 23 22 22 22 23 21 22 24 25 23 23 22 20 20 22 28 33 36
21 19 21 28 31 28 27 26 23 24 26 26 26 27 26 22 21 22 26 27 27 25 29 30 25 23 23 23 25 26 23 32
24 20 23 29 32 29 27 27 27 29 31 32 32 31 30 27 27 27 26 26 27 24 26 32 32 29 32 31 29 28 29 31
27 25 25 25 29 30 28 26 27 30 31 32 32 28 27 30 28 25 22 26 26 24 23 28 30 32 32 32 28 28 30 31
30 27 25 23 24 26 27 27 28 28 26 27 28 28 30 29 26 25 26 26 28 30 26 23 27 30 31 30 28 27 25 30
30 26 25 23 24 25 25 25 27 26 27 28 28 26 28 25 25 27 28 27 27 28 29 28 25 27 31 32 31 30 27 33
30 23 20 20 19 22 23 24 25 26 27 27 27 25 22 25 28 31 32 31 31 30 30 32 30 27 28 32 33 37 34 28
29 25 24 21 19 19 23 23 22 23 24 25 24 25 28 28 28 31 33 33 29 30 29 29 28 29 27 27 32 34 35 29
34 29 25 21 19 21 23 23 22 21 22 22 22 21 24 30 25 29 24 30 27 26 26 25 27 26 26 27 27 28 30 30
27 23 22 22 22 19 18 20 18 20 20 17 17 16 15 19 22 17 9 17 19 19 17 24 25 23 21 19 18 18 24 26
32 24 22 22 19 14 13 13 16 19 14 13 10 12 13 12 12 8 4 6 11 16 16 23 23 21 19 14 11 8 8 17
40 20 21 18 15 18 14 12 13 16 18 15 15 14 12 9 8 3 2 3 5 8 16 18 16 15 16 12 11 7 5 6
31 27 25 20 21 18 15 13 15 15 15 14 14 12 10 7 7 10 10 9 11 10 13 14 14 15 15 10 8 6 7 7

GFSFLT2_500_spd_141.txt.gz
Wind_Speed
18 17 20 28 30 27 25 26 19 21 16 17 17 15 13 11 8 10 7 6 8 9 15 20 17 15 17 18 20 20 19 18
21 21 22 25 28 29 28 29 23 24 21 19 20 16 15 16 15 13 11 11 13 13 11 14 16 19 18 20 20 23 22 21
26 26 24 23 23 26 26 26 26 25 23 18 22 20 20 17 16 16 16 11 12 15 15 17 15 17 19 20 22 27 26 28
27 26 20 21 23 26 26 22 22 21 22 21 24 25 23 21 20 21 20 18 15 13 19 18 18 20 20 18 27 28 31 31
21 26 25 21 17 16 17 20 21 18 12 13 13 16 16 17 18 21 23 24 25 25 25 21 19 18 20 20 22 25 36 33
24 18 21 19 18 17 14 16 15 14 12 12 13 14 16 15 16 15 17 21 22 22 24 26 26 22 24 21 19 19 26 31
21 23 20 20 20 23 20 20 19 16 16 16 15 14 16 16 16 17 18 21 23 24 23 25 26 28 26 25 22 19 18 21
23 25 20 17 17 21 24 22 21 18 16 16 15 15 15 16 18 21 23 24 26 26 26 27 28 29 28 29 28 25 20 21
25 24 21 23 17 23 24 20 19 17 18 17 16 17 18 20 22 24 27 28 28 27 27 27 29 31 33 30 29 30 27 24
23 25 26 18 19 23 24 22 20 21 20 19 20 21 24 26 27 27 25 25 25 25 24 23 25 30 33 34 34 33 33 32
28 25 19 17 19 18 20 22 23 22 22 22 22 23 26 26 26 26 26 26 26 27 27 25 25 25 29 35 38 38 37 37
29 22 16 16 16 16 17 20 23 23 24 23 23 24 25 26 27 26 25 25 27 29 27 27 27 26 27 29 33 37 38 37
32 25 13 14 13 16 18 20 23 24 23 22 22 23 24 26 26 23 26 27 27 30 31 30 30 32 31 29 29 35 39 40
31 22 20 18 18 19 20 21 22 22 22 20 21 22 24 26 26 29 26 25 25 30 29 27 27 29 29 32 31 30 33 41
36 22 18 23 23 22 22 24 25 24 22 20 21 21 21 19 22 22 22 27 31 30 25 26 27 27 29 30 31 31 32 34
31 18 19 22 24 24 27 24 23 22 20 19 20 20 20 20 18 18 19 15 17 19 19 22 22 22 25 23 24 29 32 34
31 22 20 20 24 20 19 17 16 19 20 18 18 18 19 20 18 16 10 7 3 6 15 18 20 20 18 20 22 22 23 23
33 28 25 28 23 21 17 17 16 15 17 16 19 18 21 21 17 15 7 7 8 5 5 9 12 13 14 18 20 22 18 18
37 33 22 25 21 18 13 13 15 19 17 16 17 20 18 16 14 13 9 9 8 8 6 7 8 12 15 17 21 22 12 13